GFSCGP_850_rhum_000.txt.gz
RH
18 28 26 21 20 22 20 24 28 25 22 29 30 32 28 18 19 19 18 18 21 22 22 19 19 22 23 24 24 26 24 26 28 26 27 28 30 31 32 34 33 40 44 39
26 27 18 18 22 21 24 29 33 31 26 30 32 33 24 18 19 18 19 19 20 22 22 23 24 24 25 25 25 25 28 30 31 30 31 32 33 33 33 33 32 34 39 39
27 20 16 20 26 26 24 30 32 35 36 33 31 31 22 18 21 21 20 19 19 19 21 22 22 23 24 25 26 28 30 31 33 34 34 35 35 35 34 34 33 33 36 39
21 17 17 25 24 26 31 24 31 37 41 46 32 51 27 21 21 22 22 20 20 23 24 24 25 25 26 27 28 29 31 32 34 36 36 37 38 38 37 37 35 34 33 36
24 17 21 25 24 25 30 30 38 38 46 42 41 43 30 21 22 24 28 24 25 25 26 26 27 27 29 30 31 32 34 35 38 40 42 42 43 43 42 40 38 35 34 33
20 18 21 21 25 28 31 38 44 48 48 63 40 39 39 32 24 32 30 25 25 26 26 27 29 30 33 36 38 40 44 45 44 42 40 40 40 40 45 45 43 40 36 35
40 29 24 26 35 35 42 56 79 69 78 71 45 47 36 28 27 28 27 26 25 26 27 29 31 34 36 36 38 41 43 42 42 41 42 39 37 39 41 40 40 46 41 43
64 61 40 29 33 37 41 53 82 78 84 76 50 46 38 26 24 23 23 26 29 33 34 35 37 42 42 41 41 41 43 40 42 46 44 37 39 39 36 36 38 44 51 50
71 56 41 33 33 33 41 60 44 63 91 86 68 49 30 30 36 31 31 32 34 35 37 40 41 41 42 43 44 46 49 49 43 44 44 42 40 42 39 39 41 53 56 48
51 68 49 46 38 36 36 38 64 81 84 94 70 60 50 39 43 40 40 37 40 38 40 41 43 46 47 45 44 44 43 45 46 50 52 48 44 40 40 44 48 53 50 49
51 59 61 50 50 51 50 65 56 58 79 95 97 82 45 45 45 45 43 41 43 44 45 44 45 48 51 52 51 56 54 58 52 54 59 58 51 44 47 53 53 51 52 67
51 68 81 57 49 42 43 53 62 88 79 86 91 70 39 44 37 39 42 44 47 47 49 51 54 55 46 43 52 56 47 53 59 68 65 61 50 50 54 56 55 53 55 56
46 69 83 60 50 56 59 53 58 67 81 85 93 79 36 36 44 44 49 53 52 55 56 59 56 52 50 47 53 52 60 72 74 75 58 55 52 52 50 49 48 49 54 61
45 66 67 80 62 68 73 61 56 63 92 80 73 64 49 44 49 53 58 59 59 60 63 62 55 55 60 60 64 59 72 82 79 73 68 54 51 49 48 52 56 60 69 72
57 74 68 69 65 65 67 67 67 73 68 85 68 63 53 62 59 60 62 66 66 68 70 64 58 58 69 57 59 66 84 78 74 74 77 51 49 54 61 74 76 85 87 56
66 85 78 81 72 77 83 72 70 69 65 66 63 58 68 72 72 72 70 70 74 73 67 51 55 69 69 65 73 81 77 66 72 97 95 83 74 80 81 96 96 74 69 61
73 88 96 74 92 94 90 75 65 56 54 58 76 64 72 83 80 78 78 68 71 72 61 66 71 76 67 62 72 72 68 67 81 98 100 99 98 94 79 79 75 73 65 63
87 96 97 97 96 98 62 51 52 56 58 56 73 74 76 78 78 79 72 67 72 65 63 66 77 76 74 71 74 69 68 74 80 85 95 100 99 96 74 66 61 57 54 48
74 98 96 97 97 76 67 56 50 57 68 73 80 78 75 71 79 71 72 74 74 61 64 76 77 73 66 75 74 76 79 70 90 69 68 68 77 86 78 72 61 50 46 44
92 92 87 93 99 91 62 49 46 55 82 67 70 75 82 84 97 78 83 92 60 58 77 75 74 71 69 83 89 92 81 74 79 79 64 72 67 55 51 48 47 47 52 54
97 98 96 100 99 86 61 47 53 76 65 61 64 68 76 93 85 89 92 72 58 70 71 70 71 69 81 90 97 86 58 62 88 92 75 52 41 41 43 48 55 57 53 56
69 85 96 97 99 94 54 58 76 64 62 60 61 70 85 90 87 85 74 59 62 60 64 60 64 88 84 85 78 74 68 77 73 60 51 38 40 47 55 62 62 56 68 75
80 74 80 80 80 56 52 55 56 62 60 64 81 89 97 93 92 89 68 58 60 65 58 60 81 92 86 80 75 69 68 64 57 50 37 41 45 50 64 65 65 74 84 89
71 56 82 77 58 54 55 54 58 59 70 89 95 88 90 89 86 64 69 70 65 53 64 70 90 90 76 78 66 66 66 59 42 37 37 39 44 54 62 68 70 85 89 80
79 84 87 84 72 66 61 56 66 78 92 88 88 93 91 65 48 66 72 62 49 62 71 82 91 95 78 60 58 60 53 40 41 42 46 49 57 65 74 78 76 84 85 89
72 73 90 87 62 66 68 80 81 83 91 99 99 87 56 49 56 73 63 59 63 71 80 90 74 65 61 57 58 57 39 42 50 53 57 68 77 81 85 86 81 89 88 90

GFSCGP_850_rhum_003.txt.gz
RH
21 28 25 21 22 22 21 26 32 27 24 33 33 39 33 25 20 19 18 18 20 21 19 18 17 20 23 26 25 25 25 28 30 31 31 32 33 34 34 33 33 33 32 31
29 26 19 21 23 21 24 29 31 33 29 36 36 36 24 22 21 24 22 25 22 22 22 23 24 24 24 25 26 26 28 30 31 33 35 36 37 37 37 37 36 35 34 33
29 20 18 22 27 27 26 29 30 35 37 33 37 33 22 22 23 24 24 24 25 23 22 22 23 23 25 26 26 28 28 30 32 34 36 38 39 40 41 40 41 41 38 35
23 17 22 26 25 27 32 23 31 39 42 47 38 43 32 22 23 24 26 24 24 24 24 24 24 25 26 26 27 29 30 32 33 35 39 42 43 44 44 43 39 40 45 40
24 18 26 28 27 28 35 37 40 40 46 45 42 45 37 30 22 26 30 26 24 24 26 26 26 27 27 28 30 31 33 35 39 42 42 43 43 42 41 36 39 41 44 47
34 21 23 25 27 32 35 42 48 51 52 62 43 44 42 37 33 32 30 27 27 27 26 28 30 31 31 34 36 39 42 43 44 44 42 42 43 42 42 37 40 39 38 38
47 40 35 29 37 38 45 59 73 64 76 71 50 48 42 31 31 30 31 28 26 27 28 30 32 34 40 43 42 41 40 40 40 40 40 42 38 37 40 41 42 40 38 39
67 56 44 36 35 39 43 54 80 68 85 79 54 50 42 29 25 26 27 27 31 34 35 36 40 44 42 42 42 43 44 43 42 40 42 42 42 43 47 48 44 40 40 48
77 57 44 38 41 37 45 63 49 76 94 89 72 53 36 37 42 30 34 37 42 44 44 42 41 42 46 46 47 47 45 43 41 44 46 44 45 41 48 55 44 42 42 50
56 72 51 48 39 41 43 42 67 84 84 90 77 72 57 43 51 44 46 46 44 43 42 43 44 47 52 51 48 44 45 47 45 43 41 44 43 43 55 54 48 47 51 58
49 60 56 47 51 54 58 69 62 63 81 91 96 83 53 53 48 51 50 47 47 46 47 50 52 55 56 49 47 54 56 47 47 53 58 61 50 49 56 55 53 53 55 53
53 69 80 53 51 50 48 63 64 86 77 87 94 74 43 43 46 49 51 54 52 50 50 51 53 58 49 53 58 48 48 44 54 68 74 63 54 52 59 57 54 51 55 74
49 71 80 55 48 48 59 60 62 73 83 86 92 78 46 42 52 53 57 58 60 58 57 57 60 59 59 63 61 50 54 66 73 73 69 62 56 60 61 55 56 59 62 68
47 67 64 79 55 66 75 68 64 70 93 82 80 63 52 54 63 62 63 63 64 63 65 65 69 59 64 66 60 54 54 68 74 67 61 63 75 57 55 60 65 69 71 91
60 73 69 70 67 70 72 76 72 81 77 86 74 72 60 60 74 70 68 70 70 67 71 74 66 63 70 74 63 67 70 71 66 60 67 97 72 56 62 74 77 84 92 92
72 83 79 84 77 81 86 78 81 79 79 79 74 70 49 66 72 76 72 71 74 70 74 73 59 63 72 67 70 75 68 72 64 70 80 99 100 98 97 97 97 91 88 93
74 90 98 82 93 94 82 75 75 66 55 57 74 63 66 77 74 75 75 75 72 68 77 65 55 64 63 70 75 66 68 70 78 81 81 96 99 99 97 90 83 76 75 70
92 95 97 95 96 96 57 48 50 60 58 58 62 75 72 72 67 76 74 76 77 82 64 57 55 59 56 75 68 68 81 84 93 98 96 80 79 82 79 77 79 70 57 56
81 97 96 99 98 78 64 54 52 56 61 60 73 74 67 62 76 79 68 83 84 80 81 69 61 70 74 65 75 87 86 96 91 89 91 89 74 65 60 56 54 51 51 54
94 91 92 98 99 95 65 46 44 60 90 64 68 74 65 74 96 75 98 96 91 76 71 69 76 67 62 81 96 90 87 88 82 77 81 82 58 52 46 45 50 59 60 58
97 98 99 98 97 89 64 51 52 90 70 53 58 65 71 86 78 99 93 85 68 53 63 77 61 55 81 92 87 74 68 67 76 82 69 57 43 42 48 54 64 62 61 65
72 83 95 98 98 94 54 61 81 67 55 58 68 76 90 95 96 99 92 65 58 74 68 48 55 72 93 89 82 76 77 76 77 62 53 41 42 44 50 60 64 66 67 69
84 72 81 74 80 55 54 53 53 65 67 72 89 97 94 100 100 81 54 54 73 67 48 50 65 79 85 86 98 90 70 66 63 44 42 41 44 48 58 66 71 69 69 70
82 68 88 77 63 56 58 64 63 68 76 93 91 97 97 98 85 54 47 63 74 58 50 55 72 86 83 85 73 63 64 63 42 44 49 51 52 57 66 76 81 78 78 80
79 86 87 81 72 73 68 69 87 91 97 95 99 97 83 51 48 56 58 70 68 65 64 75 83 78 60 60 55 54 62 46 44 48 58 62 69 83 89 87 88 88 89 88
81 76 93 95 70 71 73 98 99 93 90 97 73 58 46 51 54 59 69 74 72 76 67 78 65 64 64 59 57 59 59 50 48 57 66 74 82 97 100 94 89 89 84 87

GFSCGP_850_rhum_006.txt.gz
RH
23 29 27 23 24 23 23 26 32 30 27 35 37 42 32 24 23 22 22 21 21 21 20 19 19 21 22 26 28 26 26 29 29 31 33 36 37 37 39 39 39 39 39 39
29 26 21 26 26 23 24 29 30 33 32 36 39 37 23 26 28 29 28 27 24 21 21 20 21 22 24 25 26 25 26 28 31 32 33 34 36 38 41 42 42 43 43 41
30 22 23 24 30 33 31 27 29 35 38 36 39 31 32 23 25 26 27 26 24 22 22 22 23 24 24 25 26 27 28 29 30 32 34 36 41 43 43 44 43 42 38 38
26 21 25 32 29 30 37 26 32 39 46 47 39 42 37 35 25 31 26 24 24 24 24 24 24 25 25 26 27 29 30 31 34 38 42 44 44 45 44 43 39 38 39 40
24 23 31 36 30 30 38 40 43 41 49 47 48 46 36 35 27 28 28 25 25 25 25 26 26 26 26 28 30 34 36 40 42 43 44 44 42 42 42 41 40 40 40 41
38 26 28 29 29 35 38 46 44 54 55 63 49 49 44 40 34 32 31 29 28 27 28 31 32 32 34 39 43 43 42 41 42 42 42 41 39 39 35 32 31 29 31 37
49 42 40 33 41 40 49 55 64 62 74 70 51 52 42 34 31 30 30 27 28 31 33 35 36 41 44 44 43 44 45 44 44 42 39 35 33 33 32 28 26 27 39 44
67 51 45 39 38 42 47 56 77 59 87 82 59 54 44 32 34 30 31 35 38 41 41 42 46 45 44 46 48 48 47 45 43 40 37 37 38 39 37 32 30 31 50 48
80 56 47 42 45 40 46 66 54 79 96 90 73 56 42 44 48 38 44 45 44 43 42 41 42 44 46 47 48 48 42 41 44 40 41 44 40 38 36 40 36 46 54 52
56 68 49 48 41 42 48 47 65 84 88 87 74 70 62 57 54 57 53 47 47 46 46 47 48 48 53 57 48 48 50 48 46 44 43 46 53 48 44 44 43 56 57 59
50 60 49 46 53 56 60 68 65 68 83 93 97 80 56 55 53 59 53 55 54 54 52 52 53 55 58 58 54 54 48 40 38 44 58 70 61 51 42 48 59 62 66 68
57 70 76 50 45 53 54 57 64 83 71 90 93 85 46 49 54 51 56 59 58 58 54 54 58 63 66 60 66 64 53 55 61 70 73 61 57 50 63 62 62 71 68 64
50 71 76 47 50 52 60 61 65 77 84 85 95 74 50 50 53 55 60 60 60 56 55 56 54 66 69 62 72 77 68 71 74 72 63 61 52 67 65 66 65 68 66 78
50 69 60 71 53 59 73 70 68 73 91 82 82 65 54 52 59 60 61 60 61 59 62 62 69 75 62 62 72 69 68 77 69 62 64 59 71 86 63 69 69 70 78 94
63 75 72 71 68 71 74 79 78 88 80 88 68 77 64 62 62 65 63 64 64 68 70 70 79 66 53 59 54 47 74 70 63 69 70 74 97 96 82 73 74 79 88 94
74 80 83 87 84 86 93 83 85 84 84 87 82 86 59 52 69 67 61 66 74 78 84 83 62 57 56 43 46 74 72 58 74 82 90 98 95 97 99 94 92 92 91 93
75 92 98 86 89 92 73 59 76 69 68 67 69 54 53 71 72 68 70 75 83 93 85 80 69 47 52 67 77 71 62 71 82 89 98 88 84 85 80 71 70 78 74 63
98 96 96 97 89 95 58 48 49 61 58 56 62 64 66 69 66 66 69 70 91 89 81 53 48 72 74 79 64 70 84 86 85 86 83 74 73 67 64 58 52 50 50 51
83 98 96 97 93 80 65 54 47 59 62 50 62 69 68 64 69 66 78 97 100 97 70 53 72 86 73 51 65 90 92 82 78 74 76 70 69 60 55 41 44 53 59 61
93 92 94 99 98 96 63 48 48 63 86 65 64 64 65 68 94 80 100 98 80 56 52 69 81 53 45 59 91 88 82 68 68 74 82 68 58 46 38 43 50 59 62 65
96 98 97 92 99 90 66 55 54 86 74 63 65 71 74 87 97 99 99 66 47 49 68 76 51 46 55 81 88 82 78 73 75 78 67 55 38 38 41 46 56 62 66 66
69 81 94 97 99 94 55 61 73 64 59 68 73 79 99 100 98 88 59 42 44 53 71 70 53 51 68 85 90 96 96 86 75 69 54 41 45 48 50 56 62 70 74 73
85 74 80 85 85 56 58 70 59 60 76 80 86 99 97 96 92 56 47 53 57 65 75 66 68 58 76 76 75 68 62 70 69 58 45 48 54 61 66 71 77 80 81 82
82 77 91 80 70 73 70 66 75 90 99 100 100 99 97 67 50 57 62 62 63 73 76 74 76 71 65 57 59 60 63 66 63 48 48 55 66 73 76 84 93 92 88 85
88 81 89 91 76 77 71 80 90 92 95 94 86 64 57 59 62 59 64 55 64 74 72 75 80 74 62 58 66 68 60 64 56 53 54 66 76 83 78 90 98 97 92 91
79 90 94 80 65 90 91 93 94 94 91 86 53 56 50 53 64 65 58 57 61 66 71 79 79 84 78 78 77 68 57 66 62 60 61 79 86 89 79 86 90 92 93 92

GFSCGP_850_rhum_009.txt.gz
RH
21 24 26 26 26 24 24 26 30 27 29 32 36 32 21 26 27 26 24 22 24 26 22 20 20 20 22 25 31 30 26 28 30 31 32 34 35 35 36 40 42 43 43 44
26 28 23 27 27 24 26 28 26 29 30 34 34 26 24 27 32 36 33 28 25 23 21 21 22 22 24 25 28 27 28 29 30 31 32 33 34 36 38 43 43 41 42 40
31 23 25 24 32 34 33 28 31 34 34 34 33 27 28 23 28 28 28 26 23 22 22 23 24 25 26 27 28 29 30 31 32 35 39 43 44 44 44 42 40 38 38 39
25 24 31 34 33 34 37 32 39 40 41 37 37 31 31 30 26 28 27 26 26 26 25 26 27 27 28 29 30 32 36 39 44 46 45 43 43 42 41 38 36 32 29 28
25 29 34 37 32 34 39 42 44 42 45 43 41 34 31 31 28 26 28 27 26 27 28 28 29 30 33 37 39 42 45 44 44 43 42 40 38 37 36 32 27 22 19 18
38 32 33 34 31 36 40 43 41 47 47 50 47 42 38 34 33 31 31 31 32 31 32 35 38 44 44 45 45 44 43 43 43 41 39 39 39 36 33 28 24 20 21 22
43 40 40 36 38 39 43 42 46 54 60 54 48 46 38 36 34 33 34 37 38 39 38 37 43 47 46 45 44 45 46 45 43 43 41 38 36 34 33 29 28 26 21 25
55 44 44 43 42 44 50 50 62 54 63 60 53 49 45 42 42 40 46 47 47 47 47 47 46 45 46 47 48 50 48 46 43 40 39 36 36 38 36 33 31 24 24 32
64 49 45 46 46 42 47 59 52 71 90 79 56 48 42 40 41 47 49 50 50 48 48 49 48 48 49 52 50 55 55 50 42 35 34 39 52 58 46 36 32 31 38 58
59 58 48 45 43 44 44 46 54 66 74 68 51 58 42 48 45 49 50 57 54 50 48 46 44 46 55 60 65 59 61 58 54 55 62 69 69 54 43 37 41 50 59 75
51 55 45 46 53 55 52 55 60 59 71 80 91 56 49 48 47 47 53 60 56 53 51 52 53 55 60 70 68 59 67 75 65 66 74 71 58 47 46 48 62 60 77 86
57 65 58 47 49 53 52 54 54 61 60 76 83 65 42 46 47 51 54 59 58 56 60 60 61 63 69 68 63 54 68 63 66 74 70 60 58 61 60 66 66 78 78 62
53 66 58 37 45 46 57 58 64 69 76 76 88 57 44 52 51 51 57 59 57 54 60 65 65 68 75 68 59 56 47 51 70 67 58 61 69 74 85 73 75 78 76 79
52 66 55 50 40 51 66 67 64 68 83 67 69 54 46 43 46 52 60 60 60 59 67 79 76 73 69 57 54 49 54 70 70 55 56 76 90 90 91 90 81 84 87 92
63 75 71 65 62 66 65 66 68 73 69 80 61 59 51 48 54 56 64 60 64 69 81 86 81 78 63 53 51 60 75 68 59 66 80 88 92 97 98 93 90 81 76 70
72 72 83 86 79 78 87 70 73 72 72 75 70 72 51 56 64 72 66 67 74 93 93 80 51 49 38 61 77 78 54 57 79 83 84 94 89 82 71 64 62 60 57 55
76 87 93 76 86 84 75 55 68 65 64 58 63 46 56 59 69 63 66 80 98 93 88 69 46 36 65 83 73 45 50 81 88 78 85 74 70 66 64 59 54 44 41 45
97 92 95 95 85 82 48 49 49 56 53 50 53 56 62 67 70 75 92 96 100 98 70 43 44 65 80 56 44 48 75 85 82 71 73 80 74 61 55 44 37 42 46 50
85 96 99 96 86 76 58 50 51 59 52 55 66 71 73 74 77 83 99 98 95 66 41 50 64 77 54 48 50 69 78 86 75 68 77 80 67 54 35 35 40 45 49 52
87 88 93 99 99 93 62 48 53 61 71 69 70 71 73 74 96 82 98 100 77 47 51 58 71 69 55 52 60 78 86 91 87 84 77 74 57 39 42 47 49 53 59 66
98 96 93 88 95 83 63 58 54 86 87 74 68 72 80 92 99 98 98 64 55 58 61 68 80 71 67 61 63 66 87 85 92 71 77 70 45 45 53 60 62 67 76 79
67 81 91 95 95 94 54 58 76 73 81 78 81 93 100 99 99 89 58 63 63 59 54 74 77 77 74 74 59 51 52 59 67 75 73 57 46 53 66 74 73 84 90 90
83 72 79 84 79 57 55 57 67 83 95 98 98 99 99 94 59 61 64 61 58 52 53 63 78 71 73 79 62 50 46 60 66 66 67 52 53 60 76 82 85 96 99 99
78 72 91 85 74 66 59 69 82 94 92 94 99 84 63 68 66 56 48 53 61 59 56 61 64 67 76 80 69 69 80 82 64 66 62 60 63 73 86 89 89 99 100 100
74 84 89 90 72 71 68 80 91 96 95 86 55 60 64 58 47 46 54 67 68 61 64 65 68 83 86 91 88 98 95 87 61 67 65 68 74 87 95 87 89 95 97 100
84 85 94 87 67 83 93 92 99 96 63 55 58 42 35 34 33 50 56 56 54 62 68 57 70 92 85 95 91 71 70 60 59 71 70 73 86 96 94 87 85 86 91 88

GFSCGP_850_rhum_012.txt.gz
RH
18 14 18 19 19 17 16 16 17 15 20 24 23 18 17 18 18 19 19 19 24 29 31 25 22 22 23 31 55 59 57 34 30 35 37 42 43 44 46 50 44 44 45 40
14 21 19 20 19 18 19 18 19 20 22 25 22 18 17 19 23 22 21 22 24 25 26 32 30 26 31 31 34 38 38 33 30 32 32 34 37 49 44 50 45 42 39 33
17 19 20 21 22 23 24 22 28 28 24 24 24 22 19 20 22 23 23 23 23 24 27 30 35 32 29 30 32 33 32 31 33 38 50 51 49 48 49 44 46 36 31 27
20 23 24 23 27 28 25 27 31 30 28 21 26 22 23 20 20 20 23 25 27 28 30 35 40 39 30 31 33 37 41 47 44 43 44 41 49 51 51 55 55 44 41 29
25 26 26 27 29 30 32 34 33 33 30 29 27 23 27 21 21 21 23 27 31 34 39 45 49 51 53 48 45 46 53 47 45 44 44 53 61 62 62 63 62 54 46 41
27 28 27 29 28 29 32 34 34 34 34 39 34 30 29 27 29 24 25 32 37 40 39 48 52 52 55 57 46 45 49 56 48 46 45 42 50 65 65 59 54 48 48 47
27 30 29 33 27 30 27 30 35 47 46 41 35 32 38 31 28 30 31 37 44 47 47 46 47 48 53 58 54 47 52 60 63 66 61 53 58 59 65 63 60 58 50 53
32 37 35 34 36 37 36 36 48 50 46 38 35 32 34 31 33 36 38 41 42 45 48 48 48 50 55 61 65 70 66 60 60 64 60 42 32 60 66 67 63 56 61 63
38 37 33 35 34 35 36 44 40 55 80 63 34 34 34 31 31 33 37 41 43 44 46 48 49 52 58 64 68 73 71 68 68 69 57 46 58 66 60 42 37 48 46 67
43 43 36 34 36 36 34 37 43 41 71 43 23 27 25 37 34 34 36 38 42 44 46 49 50 54 59 63 73 75 73 71 79 85 73 70 71 61 53 63 78 83 89 99
35 40 37 37 40 40 40 42 42 39 50 51 49 27 32 33 34 35 38 41 45 49 51 52 56 60 65 71 68 69 78 78 75 78 81 84 80 73 79 83 87 93 94 88
45 46 38 33 41 41 38 40 38 46 47 52 65 42 30 31 35 40 39 46 50 53 50 54 58 64 69 67 66 67 74 72 75 78 82 82 83 85 87 95 97 100 100 97
43 46 35 35 43 40 43 41 44 49 58 61 75 42 28 32 35 33 39 46 49 49 49 56 63 67 66 66 67 66 71 79 80 76 73 78 87 90 98 99 100 100 98 98
49 46 41 28 28 35 38 36 39 45 67 51 48 39 31 27 29 33 38 50 51 52 57 66 72 70 67 61 57 74 80 80 73 76 78 78 97 100 100 95 91 90 93 94
49 49 48 41 39 38 42 42 38 42 46 60 48 39 34 32 34 40 50 53 54 59 72 73 74 65 52 53 72 77 74 72 79 83 81 85 89 85 79 76 74 73 74 67
52 56 66 58 48 42 49 40 37 42 44 46 45 46 35 39 47 53 55 58 65 76 79 79 49 48 50 64 78 72 63 65 84 80 82 82 80 78 74 75 68 62 57 60
62 69 74 82 62 62 79 50 38 38 42 44 52 39 42 46 54 59 62 69 82 93 85 53 52 46 59 71 73 63 65 72 79 80 79 79 82 77 72 64 52 55 61 68
92 82 90 94 91 86 44 33 36 42 39 34 35 43 53 55 58 57 80 89 97 95 60 52 49 53 66 73 62 68 62 67 74 77 78 84 77 75 66 55 57 63 66 69
67 86 99 96 71 50 45 42 44 47 49 44 52 55 57 59 58 60 98 99 97 81 63 56 53 58 69 73 66 72 72 68 69 76 81 83 78 74 57 57 64 69 71 73
71 79 87 89 94 81 50 43 48 49 57 57 73 80 75 77 92 93 90 94 75 67 57 52 52 58 66 66 69 74 70 64 65 70 77 76 77 71 60 66 72 77 74 75
95 92 92 81 94 67 44 48 54 84 82 72 82 91 91 95 98 98 99 70 59 55 52 51 50 55 63 65 68 74 67 63 61 70 76 78 77 66 66 71 75 79 79 92
64 90 95 93 95 93 49 48 84 61 70 94 96 99 96 99 98 80 62 55 47 48 49 50 53 54 59 64 69 69 65 59 66 85 85 81 75 71 72 77 78 81 84 93
65 54 55 61 63 42 48 54 59 81 86 93 96 86 99 78 66 54 48 46 47 52 52 54 59 64 60 62 66 75 68 80 90 96 88 78 79 79 82 84 84 88 90 96
52 55 69 71 52 48 58 58 78 94 98 95 89 78 68 65 56 48 47 48 52 53 55 62 65 59 61 68 81 95 99 97 96 90 79 79 81 83 85 86 92 88 99 97
54 57 59 64 61 63 57 87 98 98 98 88 68 68 64 47 45 45 46 47 48 54 61 66 62 65 64 70 85 99 91 83 84 78 77 84 94 96 94 92 89 98 100 98
57 51 78 96 68 82 81 93 91 99 80 70 67 50 44 44 46 47 44 46 51 58 67 64 65 70 71 78 94 90 92 92 73 71 88 93 92 100 100 92 94 94 96 92

GFSCGP_850_rhum_015.txt.gz
RH
12 12 14 15 13 11 10 11 11 11 14 15 13 13 13 15 14 16 16 15 15 18 29 32 37 37 42 52 53 55 64 63 48 42 42 39 41 42 44 48 54 61 59 55
11 16 15 14 14 13 14 14 14 14 15 16 14 14 14 15 17 16 17 18 22 26 27 33 40 46 47 48 48 47 47 49 46 42 47 49 48 50 52 54 54 54 57 53
15 16 16 16 16 17 17 18 22 21 17 16 16 16 16 16 17 18 18 18 20 23 26 30 37 44 49 51 47 47 50 54 49 38 46 48 47 45 46 47 54 55 63 61
16 18 18 17 20 21 21 21 23 22 21 19 16 19 18 16 18 18 20 22 23 24 28 32 37 45 54 56 55 53 53 52 55 44 54 51 54 54 56 58 58 61 59 53
20 20 21 22 24 22 24 26 25 24 23 20 17 16 23 16 19 20 21 24 27 31 34 37 41 46 51 57 61 58 54 56 60 63 54 60 62 64 63 60 60 60 51 55
20 21 22 24 22 22 24 26 25 25 24 31 23 21 23 21 22 20 22 27 31 32 36 40 43 44 49 57 62 60 56 54 59 66 69 68 69 66 63 62 62 57 62 59
21 24 23 25 24 24 22 24 35 40 38 37 24 21 31 25 22 22 25 30 36 39 39 38 40 41 48 54 56 59 55 55 54 59 63 65 64 69 67 66 65 68 62 58
24 37 26 25 29 30 26 29 44 44 40 30 24 22 28 24 27 28 30 32 35 38 40 41 43 46 48 51 55 63 63 58 57 62 68 71 74 74 72 73 74 70 68 71
28 31 26 28 26 26 29 34 29 45 57 53 22 22 26 25 27 28 29 32 34 34 36 39 42 44 50 52 54 63 66 60 59 65 73 76 74 78 79 77 75 73 76 77
30 36 26 27 28 28 29 27 39 34 59 38 19 17 26 32 28 28 27 30 33 35 37 41 44 47 52 55 59 62 61 60 65 68 68 72 77 80 76 76 78 78 78 79
24 28 30 26 29 29 30 32 33 27 37 46 38 25 22 23 25 28 28 30 33 37 41 41 44 50 52 57 58 57 58 62 62 64 66 68 70 75 73 72 76 84 90 85
33 32 35 23 29 31 29 31 29 42 37 38 49 43 22 24 25 27 29 30 38 41 41 43 47 55 56 56 58 57 57 57 61 64 62 60 62 67 69 82 84 95 89 95
33 36 33 26 35 31 31 29 28 35 47 47 65 42 21 24 26 25 26 31 38 44 48 52 58 57 59 59 55 49 54 62 63 61 56 56 58 69 84 87 80 80 80 78
44 32 33 35 25 22 28 24 23 30 51 48 41 32 24 23 26 28 31 35 44 49 53 60 59 58 59 53 42 51 56 63 60 55 59 58 64 72 78 81 80 73 66 61
37 42 36 32 25 24 26 28 27 27 28 42 38 34 29 29 32 35 39 42 46 49 56 62 65 59 48 39 46 53 61 55 56 57 59 59 64 69 80 78 70 64 57 53
37 51 54 49 31 27 33 28 26 25 28 31 31 34 28 32 34 40 47 50 53 62 70 74 54 46 39 43 48 54 55 55 56 56 56 58 66 81 81 72 66 49 50 52
48 56 55 66 53 56 76 44 27 28 28 34 47 35 30 35 45 54 57 60 67 84 84 68 49 45 45 44 48 51 50 52 51 52 52 57 77 83 74 69 51 49 52 56
71 63 83 90 88 87 36 26 28 30 31 28 28 31 39 51 54 62 66 72 87 85 72 60 50 45 40 40 44 50 50 53 51 54 61 74 74 76 69 64 50 54 55 59
49 69 89 93 61 44 38 38 40 43 44 30 42 48 50 56 63 60 85 88 85 77 62 49 42 39 39 39 41 44 50 48 48 53 47 59 75 83 68 60 56 58 59 61
58 68 76 87 91 79 47 34 40 40 55 50 53 57 63 74 82 74 76 79 70 54 43 40 39 40 39 38 41 43 42 43 48 57 50 57 66 73 72 61 59 60 59 61
92 92 94 80 91 60 34 40 44 66 67 56 72 71 87 76 86 86 84 64 48 41 36 36 38 38 40 44 44 43 39 40 48 62 60 73 95 92 74 64 62 60 61 72
72 91 96 81 92 84 40 41 74 56 63 66 89 90 87 75 74 64 52 43 38 37 36 35 36 38 44 43 43 44 41 49 70 86 91 96 97 88 73 66 62 68 66 85
51 48 56 56 54 33 41 44 56 62 71 88 88 97 89 63 55 48 42 38 37 37 33 34 36 43 42 44 44 45 51 67 91 99 91 98 89 87 66 71 64 67 77 95
39 34 56 59 41 40 44 53 69 84 91 93 97 87 55 53 46 39 37 37 34 31 32 34 40 42 44 46 48 54 77 88 88 96 92 90 80 73 72 65 63 72 86 93
48 42 54 61 45 46 51 76 83 86 98 94 72 57 56 46 40 39 35 32 33 36 37 43 45 45 47 52 62 74 90 93 91 89 81 78 74 73 78 74 78 83 97 94
47 47 66 75 53 72 76 85 88 92 94 63 61 52 46 44 39 34 34 36 39 41 45 44 44 48 55 69 82 90 95 100 89 95 87 86 93 94 92 83 86 90 90 90

GFSCGP_850_rhum_021.txt.gz
RH
15 23 26 17 14 13 14 15 22 19 15 14 15 13 18 16 14 14 21 31 40 40 40 38 39 37 37 43 37 46 56 59 62 49 47 44 48 45 45 46 50 54 53 53
20 25 16 12 12 14 14 20 27 19 16 15 16 18 20 19 18 22 34 37 40 42 42 44 47 46 48 52 54 56 56 50 44 44 45 44 43 44 52 54 58 60 61 61
25 17 12 14 24 23 27 30 28 24 21 19 19 22 23 20 22 27 30 33 33 39 44 42 43 44 42 42 44 43 43 42 43 42 48 48 45 48 52 53 55 57 58 62
23 15 17 18 25 24 33 28 27 26 28 35 20 34 27 25 28 28 28 29 34 40 45 47 48 48 48 50 51 52 53 52 52 53 54 54 56 57 59 62 64 62 62 62
21 22 28 30 25 22 29 24 27 27 32 33 31 33 30 26 33 34 34 33 35 37 40 45 47 47 53 55 53 50 54 57 58 57 57 59 64 65 67 67 68 70 70 68
22 20 24 25 22 21 21 29 33 33 37 62 48 39 45 32 32 34 32 31 34 37 39 42 45 49 52 54 55 57 57 57 59 61 64 66 68 71 73 73 74 72 70 51
24 27 25 22 30 25 27 41 73 69 85 74 47 42 56 36 29 32 38 39 39 39 40 43 48 50 51 52 54 57 58 62 62 59 60 66 71 74 75 74 71 70 53 62
42 45 30 25 28 30 34 35 75 63 81 68 41 46 45 35 32 35 36 37 37 38 38 39 40 42 46 50 51 53 55 57 61 60 62 62 64 69 70 68 66 61 68 73
46 39 26 26 25 27 34 43 25 61 62 80 48 40 34 34 33 31 32 35 38 38 39 40 44 47 50 51 54 58 61 60 59 60 62 63 64 63 62 60 61 68 76 79
30 42 26 24 23 26 30 24 56 66 63 56 44 50 60 42 42 39 33 31 34 39 43 44 46 49 52 54 56 57 58 58 57 57 58 60 61 62 56 57 62 72 74 65
36 43 35 23 32 35 38 41 38 39 64 75 78 50 26 42 48 44 38 38 41 46 49 51 54 55 55 56 56 57 56 53 52 56 59 56 59 48 53 57 60 62 64 44
31 46 56 37 26 24 26 34 40 74 55 79 82 61 31 49 39 37 40 45 45 46 48 51 55 59 58 58 58 56 49 48 51 51 55 60 53 52 55 57 58 60 56 52
43 45 70 53 44 34 26 29 30 60 71 59 74 59 30 33 38 42 43 45 45 46 48 53 57 59 56 56 45 44 42 43 44 49 56 54 56 54 57 57 57 63 58 63
46 37 50 68 37 29 28 28 24 49 85 72 73 53 39 51 52 48 50 50 50 53 59 61 61 54 54 47 45 44 44 43 42 44 54 59 63 74 68 70 67 80 62 72
46 54 50 45 36 30 29 32 34 34 38 52 49 44 57 59 59 57 56 54 58 62 64 63 60 61 53 48 46 42 38 37 40 50 52 55 63 68 79 81 74 78 65 66
50 76 54 49 48 47 44 44 44 38 33 39 40 48 52 51 53 55 56 63 69 70 69 68 62 56 52 43 40 38 38 40 42 40 41 48 64 75 80 80 96 97 78 62
66 75 82 82 71 77 76 53 38 36 34 36 46 47 55 60 59 61 69 69 71 69 65 55 50 49 42 36 37 41 41 42 41 40 42 53 54 60 77 92 99 97 88 62
71 82 97 89 80 51 52 33 39 43 41 40 50 59 61 61 63 69 72 72 70 67 59 50 45 35 34 38 38 40 42 40 39 40 42 48 56 70 66 64 98 96 92 70
61 88 94 95 92 60 47 41 47 50 53 60 69 65 66 63 61 70 70 61 56 50 41 35 34 33 32 34 38 39 39 40 41 44 50 56 60 62 76 89 86 93 87 76
78 81 85 98 88 78 58 45 39 40 79 68 65 74 74 65 92 79 64 54 56 39 36 34 29 29 30 34 37 38 40 43 45 52 58 67 64 81 86 90 74 70 78 77
94 90 94 96 92 82 60 42 41 72 69 70 70 75 74 80 77 73 58 54 40 36 34 30 30 33 35 36 36 41 45 50 56 59 64 64 73 76 84 92 93 92 85 72
86 95 96 87 86 94 42 42 60 61 70 74 76 75 74 70 63 58 45 42 37 34 32 32 35 36 37 38 45 48 52 57 64 68 63 68 75 82 89 95 84 70 68 68
72 80 90 80 80 48 42 41 52 52 65 78 73 73 70 69 63 49 44 39 34 34 36 38 40 42 42 47 52 57 64 70 69 64 71 73 79 78 82 79 74 73 74 76
46 50 80 72 57 48 54 59 62 72 75 75 67 57 61 68 50 44 38 34 37 39 42 44 44 46 49 55 60 64 70 70 68 74 78 76 80 91 90 86 84 78 77 81
59 52 55 70 54 48 67 67 78 81 78 77 69 69 52 47 43 34 36 38 39 40 42 45 49 54 59 60 63 72 72 77 81 84 75 63 65 84 86 87 86 93 88 82
58 61 80 83 58 61 83 83 82 82 85 69 70 51 48 36 34 36 38 38 41 44 46 48 52 60 68 72 74 79 86 91 97 96 68 60 54 81 91 92 93 91 87 89

GFSCGP_850_rhum_024.txt.gz
RH
19 24 23 17 18 16 16 23 24 19 15 14 18 19 20 16 19 37 49 53 54 57 57 59 62 65 67 71 72 73 82 73 68 60 56 55 51 47 49 56 57 57 58 59
25 24 18 16 20 25 22 26 25 21 20 16 23 22 22 28 40 48 51 52 52 53 55 54 52 52 55 55 55 54 54 52 48 46 46 46 48 50 56 58 59 59 59 58
28 18 14 24 27 27 35 32 29 25 23 22 24 27 35 37 41 45 47 45 42 42 45 46 46 48 51 48 45 43 47 50 49 49 50 50 49 48 50 51 52 51 56 59
21 16 24 28 27 26 38 28 27 26 31 29 22 40 30 38 41 40 47 48 46 44 43 41 40 40 38 39 40 40 41 45 48 53 53 52 52 53 54 60 64 67 70 72
24 29 31 31 25 23 30 25 27 27 33 37 38 41 33 38 47 47 47 50 49 45 42 42 41 43 46 47 48 48 45 46 47 53 57 60 62 64 68 71 74 76 72 61
24 24 25 25 25 22 22 29 44 40 45 62 47 44 44 43 43 44 44 49 47 44 44 42 44 46 48 50 52 56 57 56 59 59 58 58 61 67 72 72 70 66 61 44
31 31 26 24 32 29 31 49 70 68 78 69 51 57 53 45 38 40 48 46 45 44 41 42 44 47 49 54 56 58 59 62 64 63 61 61 62 64 66 67 64 57 46 48
45 48 32 28 28 30 34 44 73 65 71 63 42 55 52 44 43 41 40 40 40 41 42 45 50 56 55 54 55 56 57 59 60 61 61 61 62 62 61 56 50 39 47 58
47 40 28 25 25 30 34 41 36 62 68 77 57 45 36 39 42 40 40 41 41 46 45 49 54 54 56 56 56 57 58 59 59 58 59 60 59 57 55 53 41 40 47 62
33 43 28 25 28 29 26 28 52 67 58 54 51 52 62 51 47 43 41 45 46 47 49 50 52 54 56 57 57 57 57 56 55 56 56 53 48 54 59 54 50 49 51 62
37 43 39 34 33 35 38 42 44 47 68 72 79 55 38 48 52 50 50 48 48 49 53 55 57 58 58 57 53 55 54 52 50 46 45 48 49 52 55 54 58 58 60 62
36 51 58 39 27 26 28 36 47 71 46 81 81 58 42 48 43 39 49 49 50 52 59 60 60 59 55 48 45 43 44 43 44 44 42 46 50 54 56 60 67 63 62 66
38 47 70 57 49 40 32 30 51 61 71 58 71 59 41 46 50 49 52 51 55 58 57 56 57 57 51 48 46 45 45 42 38 40 44 56 57 56 62 63 67 70 77 92
47 49 51 66 49 38 28 28 44 55 80 68 70 50 46 57 63 58 55 56 57 57 60 61 57 48 54 50 47 47 43 39 38 38 45 49 40 42 60 73 78 83 75 92
50 56 49 42 42 35 32 34 35 38 47 58 49 56 63 68 68 59 59 59 62 66 64 54 44 51 52 46 40 40 39 39 40 40 41 38 37 46 44 61 69 64 70 90
61 71 48 41 58 59 40 42 48 46 37 40 57 67 60 60 56 60 64 66 69 66 58 49 48 48 40 49 41 41 41 41 41 39 37 36 39 38 46 54 52 61 89 100
68 74 71 61 77 67 69 51 42 36 41 40 51 58 64 64 66 69 71 69 68 64 54 46 41 35 37 37 40 39 38 37 38 40 42 44 43 46 52 52 65 97 100 94
74 92 93 74 70 40 41 43 38 45 48 64 66 68 64 62 66 72 71 66 56 48 42 36 35 33 32 33 33 35 37 41 42 44 46 46 51 57 53 71 77 97 97 87
65 87 98 69 86 48 43 48 48 45 54 66 70 71 68 71 72 72 69 54 54 50 37 35 31 30 31 32 36 36 41 42 45 47 53 59 64 54 65 80 71 77 84 85
80 78 76 98 61 52 42 47 40 42 77 67 68 75 72 67 84 75 63 58 50 38 35 32 31 32 33 35 36 36 42 47 50 55 64 68 61 65 81 94 92 99 92 91
95 94 95 99 90 78 55 46 40 72 61 70 68 72 72 75 60 63 62 56 38 37 33 32 34 36 39 40 40 42 48 52 58 68 70 68 74 73 84 93 97 85 81 81
86 94 98 98 98 77 48 50 59 57 64 67 72 73 66 60 65 66 44 40 37 34 34 36 40 42 44 46 48 50 54 60 68 70 71 74 71 75 78 82 80 74 75 79
61 67 81 76 77 47 42 42 39 44 53 71 72 70 64 61 64 49 42 36 35 36 38 41 41 44 47 52 57 62 66 71 71 73 78 82 76 79 93 93 92 90 86 86
58 57 85 72 56 56 46 49 47 55 55 71 73 65 65 71 50 41 36 35 36 38 39 39 42 44 50 58 67 74 79 77 82 82 88 93 71 61 71 90 92 92 94 89
56 60 64 76 60 64 64 61 60 70 73 72 71 71 74 51 40 36 35 36 38 37 38 38 33 37 44 51 61 67 71 86 99 99 98 90 72 56 72 93 97 96 91 83
60 60 79 82 48 52 59 69 76 76 77 77 70 61 41 41 36 36 36 36 36 36 31 28 34 39 41 52 61 76 90 100 100 100 99 97 77 72 92 99 99 97 90 92

GFSCGP_850_rhum_027.txt.gz
RH
20 26 23 17 18 16 17 23 23 20 17 18 18 25 37 26 29 49 53 54 60 62 70 57 50 49 52 57 60 61 60 72 74 69 69 65 66 55 53 55 56 58 60 60
26 25 19 22 29 23 25 26 24 22 24 21 26 38 51 52 58 59 64 66 67 68 67 73 74 72 70 70 67 63 62 64 61 57 55 52 52 51 52 54 55 54 54 58
26 19 21 24 30 33 36 31 29 25 26 25 27 36 51 49 56 59 62 61 59 57 58 58 57 57 55 51 48 44 46 45 44 43 46 50 52 52 51 50 52 59 63 69
22 27 27 29 28 32 35 29 27 27 28 31 25 49 44 44 52 55 60 57 56 54 53 51 49 50 44 42 44 45 45 43 44 44 44 42 43 46 53 59 64 70 74 71
27 30 30 30 26 25 30 28 28 29 37 39 43 50 44 47 55 56 59 56 51 51 47 44 43 45 48 49 49 50 52 53 55 56 58 57 58 59 63 68 73 68 60 51
28 25 25 26 26 24 23 35 46 52 49 63 50 45 52 54 54 56 56 56 52 49 46 45 49 50 52 56 53 55 57 58 59 58 61 62 61 62 65 64 58 42 37 32
34 33 29 27 31 29 35 48 69 69 76 71 49 56 53 44 44 48 56 55 48 47 50 54 58 56 56 58 60 62 60 57 58 60 62 62 62 62 62 53 45 50 50 46
48 47 33 28 29 32 37 43 73 59 71 63 48 60 56 50 43 42 48 47 49 55 57 59 57 58 58 59 60 58 57 58 59 60 60 60 60 55 44 46 51 55 53 54
46 39 29 26 26 31 35 45 40 70 72 79 64 49 43 46 53 48 45 45 50 52 53 54 58 58 55 54 53 55 56 56 58 58 58 54 46 44 46 50 54 55 58 60
40 45 31 26 29 29 28 35 55 68 57 56 54 59 67 54 56 52 54 54 52 50 51 55 55 54 55 56 55 52 48 53 54 50 44 44 48 51 53 55 57 60 63 65
38 40 38 35 35 37 39 41 50 54 70 72 77 60 42 53 55 56 59 55 54 55 56 57 58 58 58 56 50 44 48 48 44 44 42 43 52 57 57 58 61 68 69 73
40 53 60 40 34 33 32 38 45 62 45 83 79 60 39 53 51 50 54 52 54 58 62 60 58 57 56 50 46 45 45 45 44 42 41 41 51 56 42 39 49 72 74 72
38 50 69 53 48 37 34 37 60 62 70 61 71 57 49 53 52 54 56 58 61 61 60 61 60 56 52 48 47 47 45 43 41 39 40 45 43 37 30 33 32 35 54 67
44 56 50 60 46 43 32 32 51 52 77 66 67 44 51 63 66 60 59 61 63 64 64 62 52 45 48 51 45 41 41 40 40 41 41 38 35 32 38 42 45 48 48 66
48 53 49 49 51 37 32 35 44 47 50 54 48 58 49 70 72 62 58 63 66 66 64 51 40 41 42 46 49 42 41 42 41 36 33 35 38 44 46 50 53 40 54 98
65 69 44 48 64 61 42 38 41 44 44 55 47 63 64 62 62 64 64 68 68 66 55 44 46 48 44 36 36 40 39 34 32 33 37 42 47 50 56 57 46 51 70 99
66 73 59 48 76 53 50 44 50 44 42 46 70 61 70 69 64 66 69 68 67 65 49 46 41 35 35 34 34 32 32 34 36 41 44 50 55 60 62 50 60 58 84 95
76 91 84 66 68 42 36 44 43 41 46 56 66 74 66 62 60 61 65 65 65 52 45 40 36 32 31 31 32 34 35 37 43 47 54 59 62 62 56 59 73 67 74 83
69 88 96 74 73 44 33 50 52 50 51 67 69 71 63 65 72 71 67 65 53 53 45 36 33 32 32 34 36 39 41 42 50 55 57 62 62 61 65 80 92 88 87 92
76 74 71 97 57 46 35 51 42 41 70 66 63 73 74 78 95 80 65 58 60 41 36 33 33 34 37 39 41 44 46 51 53 56 64 66 68 72 69 82 91 90 89 94
96 95 87 100 80 68 48 48 40 57 51 67 60 64 72 85 65 58 62 63 48 38 34 34 37 39 41 40 44 48 49 52 59 69 71 72 77 76 70 76 84 84 83 92
93 96 98 98 95 69 44 51 60 53 41 51 62 62 68 65 62 68 64 43 39 35 36 38 39 39 37 41 42 43 51 67 71 78 80 85 88 83 81 85 87 85 87 91
71 66 80 75 74 47 47 47 41 38 37 58 57 65 69 66 67 64 44 45 37 37 38 39 36 34 35 30 36 47 60 72 76 85 93 98 97 87 79 86 95 97 95 95
66 56 81 68 49 56 41 44 49 46 50 54 63 71 67 67 64 63 54 38 38 38 38 33 30 27 25 30 38 51 55 61 75 99 100 100 99 85 64 70 91 97 99 95
64 68 68 80 64 64 57 49 49 53 62 66 74 69 64 70 75 45 38 38 38 37 32 28 25 27 31 36 41 50 52 79 94 96 99 97 98 90 71 92 100 100 100 95
62 68 80 76 45 53 49 47 54 62 68 72 70 73 81 73 43 38 37 37 33 31 28 27 28 31 36 39 44 52 57 84 94 98 100 96 98 96 95 99 100 100 100 98

GFSCGP_850_rhum_030.txt.gz
RH
21 26 24 19 19 16 19 20 21 22 18 24 51 61 64 45 52 61 62 58 56 54 52 50 49 54 56 67 79 89 86 94 85 85 72 68 66 62 55 55 54 51 49 50
27 26 21 27 26 27 26 27 25 24 26 28 48 56 65 64 66 65 67 73 72 74 76 80 86 88 88 84 88 74 76 66 62 59 54 50 48 48 49 50 49 51 55 60
28 21 24 27 32 33 35 30 29 27 25 29 32 42 60 55 67 69 71 72 79 81 80 74 68 64 65 59 50 46 44 46 41 40 40 41 43 45 46 50 55 58 68 65
29 29 27 29 30 32 32 30 28 30 28 38 30 42 50 56 66 69 68 66 62 58 57 55 55 52 43 39 40 43 44 44 48 50 52 52 52 53 55 58 62 71 48 37
29 29 30 31 28 26 30 32 33 33 42 41 45 50 53 62 69 70 69 62 57 51 48 47 48 44 45 48 50 49 51 54 56 57 58 60 62 63 65 68 66 49 42 46
32 27 27 27 30 27 30 41 49 55 52 63 52 46 52 65 63 64 63 62 54 55 54 50 48 50 48 50 53 56 58 60 58 58 59 62 64 65 65 58 44 43 47 50
37 35 32 29 32 31 41 50 70 70 76 72 50 53 49 46 52 57 62 61 56 55 53 51 52 52 58 66 60 60 61 58 58 58 61 62 63 60 51 44 46 50 54 53
48 46 32 29 30 36 39 44 73 57 77 68 50 61 53 53 43 46 51 50 55 55 58 59 60 64 63 64 63 60 58 56 55 57 60 59 50 44 46 53 56 57 59 61
46 40 31 27 28 32 39 47 43 72 72 80 68 53 50 56 59 53 52 52 52 55 56 58 64 66 63 60 58 57 54 51 54 58 51 45 47 53 58 58 58 59 61 66
42 46 33 28 30 33 29 42 53 68 56 53 58 61 70 62 64 60 58 55 56 56 59 64 66 60 58 58 55 53 48 48 54 45 44 46 47 51 59 59 57 51 56 69
39 41 40 35 37 40 41 44 53 58 70 68 75 69 51 59 59 61 56 52 52 56 62 62 60 58 57 55 52 49 43 44 44 45 44 41 44 53 53 35 31 32 34 33
42 52 59 41 33 38 34 38 43 59 42 84 79 60 45 57 52 52 52 53 59 62 62 60 59 58 56 53 50 41 44 47 45 40 41 45 45 38 33 36 41 44 47 45
41 51 68 49 39 36 36 46 57 59 70 66 73 53 53 58 57 53 58 65 68 67 63 62 60 58 54 47 45 49 46 41 40 41 42 39 33 35 38 45 49 50 45 35
41 56 51 56 40 43 37 45 51 48 73 64 68 42 50 60 62 63 64 66 67 65 63 62 59 50 47 49 51 43 42 42 42 40 33 33 36 42 46 51 50 48 38 44
45 51 49 54 56 41 32 37 55 49 47 50 44 57 45 59 69 62 61 66 67 64 63 61 49 46 46 46 44 39 41 41 34 33 33 40 45 49 54 52 49 43 46 58
62 65 43 56 66 61 46 40 44 47 44 58 50 53 50 60 57 64 64 66 64 64 64 53 45 49 48 37 36 38 34 32 35 35 42 45 49 55 53 52 53 52 56 87
63 72 62 60 72 53 51 49 49 47 52 48 56 50 74 72 70 67 65 65 64 65 62 49 47 39 36 35 33 32 34 38 38 40 44 51 57 56 54 61 60 73 67 76
72 73 76 65 66 47 34 41 44 48 46 50 53 59 71 64 64 61 61 60 64 64 58 48 40 36 33 32 33 37 40 40 41 45 53 57 59 57 59 65 66 92 94 81
66 79 94 69 70 42 26 44 55 52 48 60 59 70 69 66 65 65 63 64 64 62 49 45 37 32 33 35 39 40 37 40 51 55 57 62 64 59 65 68 70 84 94 99
71 70 69 94 55 44 35 40 44 40 67 52 57 72 76 73 89 74 57 62 63 54 54 39 34 34 36 40 38 32 34 43 49 55 60 63 68 73 77 69 70 84 92 89
97 97 81 100 74 64 45 45 42 57 53 61 52 56 71 80 62 54 55 63 61 59 39 34 35 38 40 37 32 32 35 45 48 51 52 65 85 90 88 82 76 82 85 84
89 97 98 96 93 68 41 51 57 53 37 39 46 47 53 53 62 62 62 64 64 42 42 36 39 39 36 32 30 36 39 40 39 46 53 81 96 95 93 86 90 93 96 96
71 68 82 74 73 45 40 52 43 42 38 40 43 41 51 60 67 68 71 54 47 57 39 39 39 33 27 25 30 36 36 38 40 46 63 87 93 96 94 85 74 90 98 99
69 58 77 66 46 58 45 37 42 47 47 46 48 53 61 68 72 66 43 80 74 40 40 38 31 24 25 29 32 38 40 41 48 72 85 90 92 94 96 83 74 93 100 99
67 66 67 76 63 53 43 42 39 40 47 52 55 62 70 73 72 55 94 58 40 40 35 28 24 26 30 32 35 39 42 46 54 80 90 92 97 96 97 92 91 100 100 98
64 69 79 73 36 46 41 40 43 50 49 59 65 75 74 70 77 88 44 40 38 32 25 23 27 32 33 34 34 40 46 55 66 83 92 97 95 99 97 95 94 100 99 97

GFSCGP_850_rhum_033.txt.gz
RH
22 20 20 18 18 15 18 20 19 20 20 37 50 54 53 51 60 63 65 56 55 54 51 51 50 50 52 61 78 82 82 87 80 70 76 67 66 61 53 52 52 52 54 61
24 26 21 29 22 25 24 25 27 26 26 32 45 51 58 59 65 66 66 67 60 59 65 69 67 68 69 70 75 85 80 62 68 72 63 54 48 48 52 54 56 59 66 66
29 23 25 29 30 30 32 30 30 27 26 30 33 36 52 57 68 73 75 74 72 70 78 92 96 77 62 62 57 58 50 52 56 52 48 47 48 50 51 54 60 67 66 58
31 29 27 29 31 30 35 30 29 28 25 27 29 25 44 56 65 69 74 80 85 86 80 73 65 51 44 42 43 44 44 46 48 50 53 54 56 58 60 63 67 67 54 40
32 30 30 32 30 27 36 35 34 34 36 36 38 30 36 60 65 69 70 74 75 70 67 60 49 44 43 44 43 46 49 50 54 56 58 61 64 63 65 68 62 45 43 47
34 29 30 29 35 31 40 39 43 46 43 45 49 37 33 55 56 64 67 69 67 65 59 50 45 44 46 49 49 51 54 57 60 61 61 62 63 63 62 52 44 44 45 50
36 36 32 30 33 33 37 40 50 55 60 54 48 49 37 40 47 56 61 63 63 57 49 45 46 51 51 52 57 58 59 61 57 55 58 60 61 54 45 42 47 56 57 59
41 40 32 30 32 35 40 40 58 53 62 55 45 51 38 47 44 55 59 59 56 54 49 50 53 54 55 62 61 61 59 56 55 56 58 56 46 44 45 56 62 63 61 62
45 40 31 30 31 32 41 39 41 62 70 61 48 46 40 51 48 54 55 61 59 54 55 56 58 60 64 64 64 61 57 55 57 58 48 43 45 51 56 60 62 56 43 35
43 45 34 30 32 36 33 39 45 50 54 46 42 49 41 53 53 51 54 58 60 59 60 62 67 69 66 67 61 57 50 49 50 43 44 46 48 50 53 51 40 31 32 37
40 40 40 37 36 38 40 43 50 47 52 42 48 32 45 45 49 52 50 55 60 59 61 66 70 67 63 60 54 48 46 46 45 51 43 42 46 44 38 32 32 38 39 42
42 50 54 41 35 38 36 40 42 47 41 64 57 38 36 47 48 53 53 59 55 55 59 67 66 62 60 54 50 53 47 52 52 42 41 41 39 32 29 30 38 49 50 41
45 52 57 43 34 36 39 43 45 50 59 58 73 34 42 54 54 54 54 55 57 61 66 64 61 59 56 52 46 46 51 43 41 42 41 35 32 30 39 48 54 49 38 39
39 52 49 50 38 41 43 51 45 43 56 49 51 34 33 49 54 60 60 59 63 66 63 62 61 59 53 45 44 51 45 43 42 38 33 32 34 43 49 56 50 36 42 46
45 47 49 53 53 46 35 42 50 42 43 46 37 42 32 36 48 56 70 70 68 67 65 62 60 53 44 48 52 46 41 40 33 34 32 37 45 50 55 53 37 43 48 57
57 60 48 58 60 56 49 40 42 50 46 45 45 43 35 44 54 63 65 72 74 69 65 64 55 46 47 50 38 38 35 32 37 34 36 44 51 55 54 43 45 53 62 73
58 66 59 57 60 47 54 46 42 43 43 40 45 33 58 61 63 61 69 71 71 65 64 62 51 48 41 36 36 33 34 38 34 35 41 51 57 53 47 49 57 61 66 85
64 61 65 61 62 42 31 43 40 41 38 41 42 48 54 57 58 55 57 59 63 63 65 61 51 44 37 35 33 35 39 34 29 40 52 56 50 50 56 61 65 62 71 89
58 68 77 67 54 38 23 36 47 52 35 40 41 52 67 68 65 64 60 59 58 61 62 59 47 38 34 33 36 39 33 27 34 45 47 47 51 58 66 72 72 64 74 87
63 63 66 76 50 45 32 31 46 42 55 43 48 65 73 68 71 49 51 58 63 65 65 52 42 35 34 37 39 34 27 27 34 38 42 46 49 62 82 85 80 71 74 88
92 93 78 79 68 57 41 37 43 50 46 47 50 50 71 66 52 44 49 59 66 64 58 46 34 35 38 39 34 24 24 30 35 39 40 40 44 68 91 90 84 78 82 86
76 89 93 90 79 65 42 50 55 48 37 35 45 36 38 37 49 56 58 67 70 63 42 38 48 38 39 32 22 21 28 35 39 39 39 41 46 72 88 89 87 82 82 94
67 64 70 64 63 44 38 48 40 44 40 37 43 45 48 53 63 64 66 70 62 40 80 72 41 39 31 22 23 27 31 37 39 39 42 48 60 80 90 93 91 81 74 96
68 64 67 63 46 54 43 36 35 35 40 43 48 48 52 57 68 72 68 51 65 96 54 60 44 30 23 25 28 31 36 37 38 40 49 68 79 87 91 95 96 88 88 96
62 65 65 67 58 46 36 36 37 39 42 46 50 55 61 70 77 70 52 90 91 58 80 46 28 24 26 29 30 34 35 36 39 49 61 75 86 87 91 97 98 94 91 98
69 64 74 70 41 44 41 47 50 50 53 56 64 72 81 84 73 66 99 70 68 89 47 26 25 27 30 32 34 35 37 40 48 61 74 82 87 87 88 94 97 95 92 92

GFSCGP_850_rhum_036.txt.gz
RH
20 18 14 11 11 10 10 14 12 12 15 13 15 18 22 33 38 35 38 42 45 50 65 72 52 50 71 84 74 66 71 83 88 55 92 76 78 68 64 58 58 59 57 63
19 16 17 18 15 14 14 15 18 19 16 17 21 24 28 29 35 37 38 42 47 56 64 74 71 63 74 88 84 72 82 71 67 66 70 74 61 55 57 56 57 59 64 62
16 20 21 17 17 18 20 18 21 18 20 20 22 25 32 36 43 50 52 47 50 54 65 80 92 98 97 95 80 67 71 62 49 52 50 49 52 52 54 55 60 66 63 48
21 22 21 20 20 21 22 22 20 20 19 19 20 18 26 34 34 42 50 56 57 63 74 83 84 93 92 72 53 78 70 64 48 51 64 62 60 62 69 74 78 70 50 43
25 22 21 20 23 22 26 22 21 20 20 23 22 20 21 34 36 37 45 54 63 70 73 69 62 65 69 79 81 74 74 73 63 59 74 71 71 71 74 75 68 67 63 42
24 24 21 23 26 23 28 27 27 26 25 29 22 25 13 17 25 37 46 59 65 66 64 57 51 55 60 68 74 75 70 71 59 62 61 65 72 72 66 61 57 51 56 61
24 26 24 25 26 28 26 24 25 32 35 30 34 30 16 26 29 34 47 58 61 61 55 50 52 56 63 69 69 73 71 73 66 62 62 71 70 64 59 61 56 61 58 63
23 32 24 25 25 22 25 23 25 26 31 29 34 33 26 32 31 38 45 52 55 55 51 48 53 57 62 67 70 69 69 73 68 62 67 66 50 61 58 61 64 69 71 70
26 28 24 26 25 24 29 27 30 42 56 47 25 27 26 33 33 39 44 48 49 47 48 50 57 61 64 69 74 76 72 70 53 50 44 42 44 39 47 49 50 63 59 56
29 33 26 27 26 28 28 27 34 34 43 30 20 23 17 35 35 36 42 46 43 43 48 54 59 69 72 71 68 65 62 49 61 61 46 45 44 42 42 40 52 56 57 56
26 26 33 30 27 25 34 32 31 27 35 26 23 14 25 27 30 33 38 42 40 43 51 56 63 72 72 69 68 59 47 61 55 46 48 42 41 40 38 49 57 58 60 63
32 31 40 31 29 28 27 28 27 27 30 42 42 20 21 28 32 34 34 39 40 47 53 61 68 69 65 61 60 49 54 54 49 45 45 47 40 41 55 55 54 60 67 62
32 35 41 38 32 30 30 29 26 31 36 36 56 18 22 29 32 34 36 38 47 54 59 64 66 63 59 59 52 48 55 52 48 49 47 48 52 54 53 56 61 71 70 76
31 36 32 33 27 27 35 33 29 26 35 24 28 14 18 23 28 30 37 42 50 58 60 59 59 58 57 56 48 52 66 46 48 44 42 47 50 36 54 56 63 71 73 79
34 36 36 34 33 32 28 28 31 28 24 32 18 19 12 15 18 23 35 44 50 57 59 58 58 58 56 54 54 60 54 48 40 36 43 48 42 42 64 62 70 72 61 91
40 41 42 44 41 38 36 29 26 28 25 27 23 23 16 19 26 32 43 49 52 55 57 59 59 58 55 55 56 53 45 38 33 44 43 42 39 47 65 66 65 82 92 92
43 49 44 38 42 39 62 36 27 25 28 29 30 22 20 27 30 31 39 48 51 54 58 59 59 58 56 58 49 39 41 34 37 33 29 37 43 51 69 72 77 80 85 91
49 45 57 56 59 74 18 23 25 27 24 21 23 20 23 24 34 42 41 45 53 57 60 62 60 58 58 46 42 41 38 37 34 26 43 50 58 66 71 79 81 86 90 93
37 45 70 82 38 25 15 22 25 29 19 20 20 20 28 46 50 44 49 51 56 60 62 62 61 57 48 50 42 36 37 35 27 44 56 62 68 71 74 80 88 91 88 88
44 45 50 65 86 87 27 31 39 34 31 25 32 32 44 47 47 22 41 59 62 64 65 66 57 47 42 42 45 42 46 43 49 40 55 66 70 74 79 87 91 91 91 93
81 83 85 69 82 45 26 26 41 38 30 33 42 40 46 45 32 45 47 63 66 69 66 58 50 38 44 57 54 40 47 48 42 29 52 68 68 74 84 92 91 89 90 96
59 77 92 75 94 78 33 41 47 38 39 40 46 46 51 48 62 60 63 68 68 61 58 50 44 47 85 64 37 41 44 47 26 40 64 62 75 79 83 91 89 92 92 96
52 46 47 45 40 34 37 39 43 48 47 46 48 47 58 60 63 67 68 66 55 50 47 58 72 81 64 37 23 24 46 26 32 34 42 76 89 92 91 88 90 93 89 94
46 49 50 50 31 34 36 39 40 41 45 48 48 53 57 59 64 66 61 55 54 69 76 90 94 60 37 22 21 23 29 31 33 37 67 85 91 88 89 89 100 96 97 100
47 49 46 48 37 34 36 42 51 55 58 60 62 69 71 70 74 62 60 76 77 83 96 93 66 42 24 21 24 31 34 35 36 47 79 86 94 94 92 90 98 99 100 100
50 49 56 52 49 50 46 56 66 69 68 74 76 79 79 78 66 70 87 93 94 99 93 63 31 20 23 27 34 36 36 36 40 48 60 95 98 99 100 99 98 97 97 94

GFSCGP_850_rhum_039.txt.gz
RH
20 20 18 13 12 11 10 9 8 8 8 9 9 12 16 20 20 23 27 29 31 32 37 51 56 54 50 72 97 100 99 76 79 81 64 62 85 93 72 68 61 64 78 72
17 18 13 10 10 10 9 12 13 11 9 10 9 12 14 16 18 19 23 27 31 34 46 57 67 65 64 82 99 98 94 83 91 65 75 83 86 70 73 69 73 80 74 68
24 18 15 12 11 12 12 14 20 14 13 11 12 14 18 18 20 22 24 25 30 36 47 57 67 79 87 95 97 100 98 94 92 92 78 72 71 71 71 74 78 76 72 65
29 22 15 13 12 13 18 16 14 14 17 17 13 17 16 20 24 29 32 33 31 37 43 56 68 81 89 95 96 85 80 78 78 69 65 65 57 57 58 62 66 73 71 70
18 17 15 13 16 16 24 17 15 13 13 17 16 14 22 18 22 26 27 35 38 41 50 59 65 81 85 81 79 72 72 66 66 66 62 65 63 67 70 69 73 73 66 64
31 18 15 17 18 17 19 19 18 16 15 25 16 16 14 18 17 20 26 35 40 49 55 55 62 62 60 69 70 67 62 62 68 68 71 71 71 65 66 65 60 53 50 49
18 17 19 18 19 19 18 19 30 32 26 28 21 20 14 15 20 18 28 36 46 51 51 48 51 51 59 67 70 68 62 64 69 73 75 74 72 67 59 58 53 54 52 54
20 29 19 18 18 20 20 18 26 29 25 21 22 18 19 21 23 25 31 38 46 50 50 44 43 45 54 64 68 64 63 66 73 74 70 69 65 60 60 55 61 56 58 56
27 24 19 19 19 17 20 21 21 26 46 37 16 13 22 22 24 27 32 40 45 47 46 41 42 46 53 60 65 64 63 65 70 69 69 60 64 62 55 60 59 54 57 53
18 26 19 22 20 21 22 19 26 24 36 29 14 13 16 24 23 26 32 38 41 43 42 40 44 50 53 60 67 68 66 67 70 68 65 60 64 61 56 55 55 57 58 57
15 18 28 24 23 17 26 25 22 22 26 31 22 15 13 16 19 24 28 34 38 39 38 41 45 52 58 62 72 74 67 64 68 65 52 46 61 56 54 53 55 55 59 58
20 20 25 23 22 21 20 21 22 33 25 28 38 23 13 16 16 21 25 30 35 36 36 41 47 54 61 65 66 68 63 63 61 60 72 69 55 48 51 54 54 57 62 61
24 21 27 28 26 24 24 20 19 20 27 30 46 23 14 16 17 18 20 25 32 34 35 42 48 56 60 60 58 62 61 60 71 71 60 48 48 52 50 49 56 62 64 64
31 20 23 30 22 21 30 24 22 23 36 28 21 16 13 15 16 15 19 22 26 32 37 43 50 56 57 55 57 59 59 67 67 55 43 38 46 52 51 54 63 66 67 74
30 32 24 22 23 24 23 21 21 24 23 30 20 16 10 8 10 13 15 21 26 35 43 47 50 52 53 54 57 54 64 63 53 47 39 40 47 55 57 65 70 68 73 79
29 34 34 39 28 29 29 23 20 17 19 18 16 15 11 14 12 15 16 21 25 33 42 47 49 50 52 53 55 56 58 53 48 42 45 45 48 56 61 67 71 68 71 74
36 37 41 38 32 30 53 31 22 18 17 18 24 17 13 16 18 19 18 24 27 32 41 46 48 50 52 51 52 55 50 46 51 45 45 47 56 60 59 59 63 65 70 76
42 42 48 48 62 76 17 15 15 20 17 14 14 14 13 14 21 26 24 26 31 35 40 46 49 52 53 53 56 47 50 53 47 46 44 47 57 58 57 59 63 70 77 80
30 39 58 79 37 25 18 13 19 20 18 15 17 15 14 23 32 28 30 32 32 38 43 48 52 53 54 53 46 49 47 42 47 47 44 48 51 56 57 60 64 76 77 77
33 35 42 52 82 88 29 23 26 23 29 19 20 19 20 29 35 27 35 37 41 45 48 52 54 56 52 46 47 45 52 54 44 42 46 50 54 58 58 64 70 78 77 75
70 74 75 60 76 47 23 23 29 35 39 28 27 25 28 29 37 44 37 41 43 46 51 56 57 51 47 46 50 64 55 49 46 43 57 60 59 59 66 74 80 80 76 81
58 72 88 68 93 79 23 28 36 39 28 31 33 31 40 40 46 51 49 48 51 54 58 54 50 44 50 73 71 65 46 46 48 61 66 63 63 69 74 79 81 77 76 83
45 38 44 40 39 28 26 25 29 32 35 34 36 38 40 44 45 48 52 56 56 53 48 45 49 74 85 87 75 46 50 45 55 44 38 63 70 73 76 80 74 75 82 86
33 37 40 36 24 24 26 30 33 38 42 43 46 46 46 46 48 50 58 56 50 45 50 69 95 99 97 82 49 49 40 25 27 43 68 74 76 77 80 80 72 75 92 97
39 37 34 38 29 32 29 42 54 58 57 54 55 58 66 63 58 62 55 52 57 76 100 99 98 87 57 54 52 26 22 27 31 61 76 79 84 89 83 77 75 81 93 96
37 40 52 48 48 56 49 62 71 65 68 70 70 66 63 63 61 59 70 86 98 99 97 93 72 63 71 41 27 29 33 39 39 44 62 92 90 94 90 86 90 95 93 94

GFSCGP_850_rhum_042.txt.gz
RH
22 23 25 20 16 16 14 14 14 9 9 10 10 12 11 15 19 24 24 24 23 23 25 32 38 38 47 69 73 82 95 95 75 68 76 72 64 58 71 72 70 63 61 60
33 23 17 19 16 15 12 18 16 8 8 9 10 10 13 13 16 22 25 27 29 28 28 44 47 48 55 67 89 89 90 93 84 88 81 59 72 75 69 66 63 81 74 69
30 24 25 14 14 12 12 27 25 22 11 7 10 10 14 14 15 17 22 26 28 30 37 49 54 57 52 75 92 86 96 92 89 90 88 76 67 70 75 76 76 81 70 67
32 31 25 20 12 12 22 24 19 19 18 17 23 26 16 16 16 17 18 20 25 29 41 48 57 65 68 84 91 89 92 85 93 88 75 71 70 68 68 67 69 75 72 69
44 44 26 22 17 14 28 24 24 14 14 30 29 35 33 19 21 19 22 23 24 27 36 44 56 62 78 82 86 90 86 83 79 60 65 63 61 61 62 64 68 73 69 65
34 25 22 16 15 14 23 24 19 16 20 40 38 42 32 28 32 33 23 26 29 32 36 45 55 71 73 86 84 80 74 74 70 65 62 64 65 65 67 67 69 64 56 52
20 17 16 16 17 16 16 18 36 82 80 40 13 18 16 32 23 21 23 28 32 36 43 49 59 71 75 73 73 72 68 63 66 67 70 72 73 70 66 61 62 62 54 53
21 30 17 15 16 38 29 19 58 60 78 37 20 22 20 19 18 19 24 27 36 45 49 50 57 57 63 69 70 66 61 62 68 71 74 72 73 68 54 63 63 58 56 57
32 34 30 17 14 23 27 22 21 25 48 56 21 12 22 19 21 22 27 32 42 46 47 46 51 53 59 67 69 64 60 62 68 72 71 70 61 60 61 55 58 53 56 54
36 60 39 21 17 17 18 15 28 24 38 38 18 15 33 24 22 23 29 35 41 44 45 43 43 45 52 60 66 65 62 64 70 70 70 67 62 63 60 60 64 57 57 58
33 56 49 22 22 15 24 25 18 16 28 46 49 23 14 16 18 22 26 33 40 42 43 42 40 44 50 55 62 67 65 64 69 69 70 62 65 61 60 62 54 58 57 57
18 22 34 26 17 17 17 21 20 56 36 37 52 35 13 15 16 18 21 28 35 39 40 40 40 45 50 54 62 70 69 66 68 70 65 63 58 61 58 54 56 55 58 61
20 27 39 26 21 20 22 17 16 20 33 39 70 35 13 13 13 15 16 21 29 35 37 37 40 44 51 56 64 70 71 64 66 66 67 64 59 52 54 52 51 55 62 61
29 24 24 36 21 20 26 23 18 22 59 43 40 21 13 14 16 13 16 17 20 29 32 34 38 44 53 58 63 64 66 62 61 65 59 53 57 49 52 52 52 60 62 58
27 28 22 17 17 18 24 22 20 21 23 37 32 21 14 13 14 12 13 16 19 20 28 30 37 44 53 57 58 58 62 60 62 60 51 54 43 47 54 54 58 62 68 66
28 36 34 36 26 24 26 22 19 18 19 17 18 19 13 11 16 16 16 15 15 20 25 34 39 45 51 54 55 57 57 62 62 53 48 44 51 49 57 58 63 66 64 68
33 46 52 55 34 33 51 33 24 20 18 19 26 20 15 15 14 17 18 18 20 23 25 35 40 45 48 50 53 55 55 61 53 47 54 55 52 54 58 60 60 59 63 68
39 47 67 71 63 67 23 15 14 16 14 12 13 15 14 22 22 21 22 22 25 28 30 34 40 44 48 50 52 53 56 51 48 57 53 53 49 54 58 56 57 60 64 72
31 53 74 92 54 32 23 17 18 20 20 17 18 17 16 20 23 29 25 30 30 30 33 36 42 46 50 52 52 54 48 52 48 51 67 47 49 51 52 59 58 60 67 75
30 41 71 68 81 83 33 22 20 19 38 23 23 24 23 21 48 41 34 35 34 34 37 41 46 51 53 54 50 48 51 46 65 48 46 63 50 53 57 59 60 69 74 79
74 80 86 74 87 62 25 22 25 44 53 30 31 28 30 37 45 47 45 38 40 41 43 49 53 54 52 47 47 48 58 73 79 69 77 59 57 64 65 70 78 76 73 77
75 84 96 79 99 89 21 24 40 42 30 32 32 33 36 38 42 42 46 47 47 49 54 54 50 47 51 60 64 81 84 74 64 75 54 38 65 76 80 80 77 77 78 78
52 45 61 58 62 31 22 25 27 31 34 38 40 41 41 40 41 42 47 52 53 48 47 46 51 65 80 84 83 87 84 64 72 50 31 24 34 74 75 76 79 80 74 76
31 33 47 41 24 24 25 30 45 50 52 49 49 51 59 60 56 52 55 52 47 51 63 75 88 87 84 87 78 70 70 69 51 32 28 49 74 73 73 70 76 78 75 79
40 34 33 35 31 30 43 57 65 61 62 64 62 63 61 60 60 55 53 64 75 78 82 86 88 89 73 70 80 75 58 51 47 38 42 51 49 49 64 86 84 81 80 84
35 38 64 65 52 55 66 63 61 62 63 64 64 68 68 64 69 63 78 86 85 88 88 86 91 92 83 75 65 66 57 36 36 38 38 39 46 53 57 62 59 66 81 86

GFSCGP_850_rhum_045.txt.gz
RH
36 36 37 30 28 19 19 21 21 18 16 21 26 26 27 22 30 34 36 37 34 30 35 38 45 52 62 68 66 70 69 80 77 68 63 65 75 74 70 68 68 65 49 52
45 57 31 21 23 23 22 23 23 20 12 11 15 18 20 22 29 29 28 26 28 26 33 35 43 53 60 64 69 74 76 66 60 63 70 77 72 65 70 73 68 51 48 58
54 43 32 22 26 25 30 33 26 30 28 18 13 17 17 18 20 27 26 24 23 25 31 34 36 45 63 70 76 62 71 76 75 81 87 72 74 75 70 61 49 48 57 64
38 30 30 29 30 24 34 23 27 26 33 35 24 37 24 20 20 25 30 27 27 28 30 36 42 50 59 77 82 78 82 86 78 84 86 75 67 50 44 51 60 60 72 71
41 40 33 36 30 23 27 25 27 30 30 33 32 44 34 25 23 22 24 30 30 31 35 43 49 53 61 73 86 90 84 89 89 90 86 67 55 59 61 64 66 74 73 71
28 27 27 30 28 26 23 25 29 48 47 48 33 36 45 28 26 29 20 22 30 36 42 47 52 60 63 67 76 80 81 79 84 88 72 68 64 68 66 70 73 75 69 68
29 23 30 26 35 26 29 32 57 69 81 70 34 37 42 30 23 31 26 24 31 36 44 49 57 63 68 73 75 75 83 86 85 65 67 63 67 67 68 69 71 64 60 55
39 40 35 29 25 29 34 36 59 70 84 70 31 40 34 28 24 22 24 26 28 34 45 51 56 67 70 69 76 67 83 78 77 64 65 67 71 71 67 66 64 64 65 58
51 47 39 29 33 26 41 48 35 58 67 77 42 22 28 28 26 32 32 33 38 43 49 58 61 66 67 70 65 70 77 70 66 67 67 72 75 75 72 60 61 65 66 68
38 54 51 38 36 25 32 26 38 48 40 41 36 30 46 36 32 37 39 43 45 47 50 51 60 65 68 67 73 69 64 63 65 68 70 73 74 73 62 62 57 68 55 57
46 45 57 44 46 34 29 31 27 31 53 59 70 42 19 29 30 37 41 42 44 46 48 48 54 57 62 66 68 69 65 62 63 67 73 72 72 64 62 60 63 66 68 56
39 55 72 54 38 28 21 28 41 65 39 53 72 50 18 23 28 25 32 38 41 43 45 47 46 49 51 52 55 60 65 65 66 70 72 71 68 63 64 64 68 74 65 55
30 39 67 47 38 32 25 26 21 31 58 48 68 51 20 15 15 20 22 32 40 42 44 44 44 43 47 52 57 63 68 67 68 70 70 71 65 63 64 63 72 61 55 55
30 35 43 53 33 28 28 28 25 30 70 50 52 38 29 23 21 18 16 18 34 38 40 42 43 41 46 52 56 58 64 69 68 68 69 68 61 63 57 67 59 55 55 56
36 39 27 27 30 29 25 27 29 29 37 49 42 37 29 22 22 18 18 18 18 25 38 39 40 43 49 53 60 67 71 74 68 65 63 55 58 62 60 65 79 60 56 57
36 47 35 40 36 34 36 32 29 29 26 26 26 28 23 19 19 19 18 17 20 23 25 35 40 46 51 60 65 67 69 69 63 61 57 53 54 52 62 87 61 60 57 56
50 52 68 58 44 40 52 35 30 30 27 25 30 29 30 30 28 25 23 26 25 26 28 35 44 49 56 60 61 61 61 62 61 58 52 48 52 67 84 63 50 53 58 60
58 58 77 76 64 53 40 19 18 22 26 26 25 26 29 27 35 30 30 30 32 33 33 34 39 43 47 53 56 57 58 59 60 52 52 56 64 77 61 61 67 58 59 66
55 74 82 71 77 52 35 24 24 28 35 31 35 34 30 24 34 42 36 32 33 33 34 37 42 47 51 52 55 56 59 54 50 52 59 70 76 68 76 57 52 44 66 71
53 66 70 85 80 68 51 24 22 22 58 38 36 42 44 38 72 64 41 40 39 40 40 46 50 53 54 54 54 54 51 50 54 62 71 87 86 74 52 52 37 55 76 74
86 80 80 95 92 76 40 27 24 44 59 36 36 38 39 56 53 48 45 47 48 49 51 54 54 53 50 49 50 51 52 62 75 89 92 87 84 69 44 46 65 51 69 73
73 93 92 96 98 82 26 27 45 56 40 41 42 42 41 42 42 45 51 52 54 54 54 54 53 52 54 55 53 66 69 81 79 88 82 74 55 45 44 42 64 75 76 75
76 80 85 76 82 52 36 51 47 46 49 50 52 49 52 55 57 54 51 49 50 52 52 53 54 57 60 62 66 70 73 79 80 76 74 59 49 33 39 68 74 77 76 78
44 37 62 49 41 42 64 57 55 54 60 62 61 62 61 60 60 56 54 51 53 60 59 59 59 62 64 71 77 76 76 80 80 69 53 37 37 48 60 60 58 70 88 84
58 42 48 49 64 70 65 65 65 64 64 63 63 61 61 60 59 58 60 62 64 66 70 73 78 82 82 78 73 69 60 56 53 47 36 38 43 41 41 46 57 68 84 89
47 54 70 84 71 71 69 63 63 60 67 67 64 63 68 64 66 66 69 74 81 88 93 92 85 77 72 69 68 64 59 51 47 49 48 44 42 45 49 55 60 64 66 67

GFSCGP_850_rhum_048.txt.gz
RH
36 41 44 38 36 29 25 21 23 22 18 33 35 28 28 55 58 59 60 51 52 59 55 61 63 61 62 60 49 30 38 62 72 79 72 70 69 69 62 65 66 70 67 56
38 38 33 35 27 27 25 27 31 22 22 23 30 28 27 44 52 52 49 49 43 55 59 61 59 59 58 55 56 51 47 50 58 65 61 68 69 72 77 76 75 72 63 49
41 31 30 34 27 32 30 31 30 30 27 19 19 19 23 24 35 45 45 43 39 41 52 56 56 54 56 59 58 62 65 63 66 75 75 72 76 78 73 72 76 68 56 52
33 26 30 35 33 29 36 28 29 26 32 31 23 26 30 24 28 36 37 38 38 34 44 48 52 52 54 57 63 68 74 75 76 76 74 75 76 62 63 66 64 52 52 58
38 37 36 35 31 25 36 30 29 27 34 38 35 37 32 25 27 38 35 32 32 32 37 44 50 50 53 57 65 72 83 86 83 81 83 86 77 67 58 50 55 60 64 73
31 32 29 30 30 29 30 26 45 51 50 50 38 39 36 32 24 23 31 33 33 32 35 41 44 50 60 65 66 67 84 86 88 91 83 80 66 55 56 62 66 72 80 74
29 32 33 31 33 29 28 40 58 62 74 60 39 43 39 30 25 26 29 30 28 31 36 44 46 54 57 63 66 72 77 78 83 91 84 67 60 59 65 65 68 75 77 75
41 40 35 34 31 34 36 38 59 48 79 60 44 46 36 31 25 23 21 22 28 33 37 40 47 52 51 56 72 81 77 75 72 78 81 68 70 68 70 67 73 79 77 79
52 46 38 37 36 34 33 42 37 64 67 83 51 27 30 31 29 33 32 30 32 31 39 47 49 52 56 65 72 79 83 78 76 82 75 70 70 71 70 70 77 76 74 77
37 53 50 42 30 28 32 29 45 56 48 48 39 35 48 36 33 37 42 38 43 44 46 48 52 58 62 64 66 76 75 72 72 86 68 69 70 74 72 72 73 71 76 75
42 49 49 50 46 37 34 32 31 40 55 55 66 42 28 38 37 43 44 35 45 53 53 54 57 61 66 70 72 66 67 74 78 82 70 71 75 78 73 67 65 70 75 78
40 59 64 42 34 37 42 44 42 64 37 57 73 46 26 34 35 38 36 38 40 40 45 45 47 54 62 64 66 68 69 65 66 69 70 73 75 73 70 73 82 79 74 84
42 54 67 53 39 40 42 38 33 50 59 54 68 52 24 21 25 28 33 35 39 38 43 47 50 53 55 59 63 69 72 68 66 65 68 74 76 76 83 79 73 75 83 72
30 46 52 61 41 33 34 32 28 39 69 53 56 38 30 27 26 20 23 26 37 43 45 47 49 52 55 61 62 66 60 59 63 70 74 77 77 80 70 69 76 75 63 66
38 41 36 34 31 31 29 29 29 32 39 47 40 43 32 29 23 24 18 21 28 46 47 47 49 50 55 61 62 59 59 68 71 76 77 76 76 64 67 72 68 72 73 67
40 42 35 39 39 34 33 29 30 31 28 32 31 32 37 29 25 26 23 25 28 30 30 42 49 52 51 52 54 58 66 75 77 78 77 65 64 67 64 69 80 81 79 63
49 58 66 55 46 41 59 39 33 29 29 30 36 34 31 41 36 35 34 32 34 35 39 40 42 45 50 52 55 64 76 81 77 67 65 62 62 60 61 71 78 88 66 76
62 66 73 78 61 67 46 32 30 38 35 33 32 33 42 43 43 36 34 34 36 36 37 43 49 51 56 59 66 76 81 69 66 63 52 52 59 68 77 85 85 90 76 54
56 76 80 71 76 54 38 24 28 36 41 35 43 42 37 44 41 46 42 36 36 35 38 40 44 49 60 68 72 74 65 66 61 55 56 64 75 82 89 96 89 67 59 59
64 71 77 89 70 67 51 29 25 34 61 40 45 51 46 41 70 66 48 43 42 42 44 44 47 47 57 64 65 63 64 60 57 62 72 82 90 96 85 78 65 61 54 48
85 86 80 96 78 66 49 30 26 39 48 42 42 45 48 64 58 57 50 48 48 48 49 51 51 52 57 61 62 59 56 58 66 74 81 95 90 79 76 64 57 52 48 61
64 84 90 95 88 62 42 34 40 48 46 44 42 46 55 54 58 56 55 55 56 55 55 55 54 54 54 54 54 60 72 81 83 97 91 84 73 60 57 50 34 47 58 67
64 62 75 73 74 58 46 43 44 44 49 53 49 55 53 56 55 56 57 58 57 58 58 60 59 59 62 65 69 73 82 85 81 76 68 56 50 48 35 35 38 48 58 65
50 60 71 61 70 75 67 61 57 49 52 59 60 59 58 59 60 60 63 65 64 65 66 68 71 74 73 74 74 78 77 73 62 53 49 43 29 28 32 36 40 44 46 50
61 50 64 91 76 71 73 71 64 64 63 61 63 62 61 61 68 65 69 71 73 76 80 83 82 79 78 74 64 56 52 47 39 32 31 34 36 35 36 38 42 47 51 57
54 56 72 86 68 70 74 73 66 62 66 66 62 66 70 66 69 70 76 82 86 88 76 68 64 59 59 57 52 50 55 60 62 58 54 56 60 61 62 63 59 58 66 71

GFSCGP_850_rhum_051.txt.gz
RH
38 38 40 37 37 35 34 29 25 21 20 28 37 34 30 58 65 67 72 74 73 75 69 73 70 74 84 83 82 78 74 68 65 70 75 85 91 94 88 73 61 62 68 73
37 40 32 33 34 30 28 30 30 27 24 28 35 38 28 61 69 66 65 71 74 71 78 76 76 78 76 77 81 76 76 71 61 71 79 86 84 84 79 69 70 72 72 68
42 28 30 31 31 30 30 31 32 32 29 23 27 30 29 48 58 62 63 58 64 64 69 76 74 72 71 67 62 56 46 42 46 68 84 84 87 84 77 76 79 77 72 67
38 31 29 34 33 31 36 30 32 31 31 29 24 29 28 35 52 56 58 58 54 56 63 57 61 67 63 60 59 56 50 43 52 63 80 82 76 77 71 74 74 70 70 61
35 36 34 34 31 29 36 31 34 31 35 37 35 39 33 30 45 47 53 52 49 46 47 56 56 49 53 62 59 59 60 62 65 77 82 82 86 73 73 67 67 72 68 66
31 33 30 32 29 30 28 30 41 50 47 50 38 40 41 32 27 28 40 47 47 44 48 49 49 58 58 56 58 61 66 71 81 85 84 76 79 76 77 69 72 67 68 73
31 31 32 33 31 32 33 43 55 62 69 57 41 46 42 30 29 25 32 39 40 42 42 52 57 60 58 54 58 62 66 69 72 88 88 86 81 77 74 67 59 65 74 80
43 46 34 31 33 37 38 40 59 45 68 55 46 55 38 30 32 26 24 30 35 35 36 40 46 49 51 52 57 62 66 68 68 80 92 90 79 67 66 62 65 68 71 78
46 41 44 37 36 31 36 45 37 65 71 82 54 39 31 34 32 38 31 30 34 34 34 34 40 44 46 52 55 56 66 65 80 82 88 86 76 69 69 69 73 76 80 85
40 38 47 45 37 35 33 34 43 55 49 55 42 40 45 37 32 34 51 38 29 30 36 41 38 38 42 49 51 57 64 66 76 77 76 85 86 80 76 73 76 80 90 90
43 37 40 42 41 34 37 37 36 46 55 56 65 48 29 38 34 35 36 38 41 38 42 42 40 41 43 49 54 60 63 68 80 79 84 86 86 83 75 73 78 84 91 92
40 51 58 43 34 35 35 39 45 66 43 61 74 49 26 30 37 37 33 30 30 37 37 39 42 46 51 54 59 65 68 65 63 71 78 75 80 74 75 75 74 77 84 94
45 54 60 44 38 46 49 47 44 53 61 59 69 53 27 27 27 27 34 31 34 40 42 42 46 46 47 53 61 65 68 65 67 70 75 84 75 77 78 80 75 80 98 89
34 55 49 56 41 38 41 37 38 47 72 53 60 40 30 26 30 26 20 25 33 41 46 44 47 46 50 60 55 53 63 70 77 77 84 79 77 80 79 77 87 81 79 71
40 45 43 40 32 30 28 30 41 41 42 48 40 46 37 35 28 25 23 23 24 29 46 50 52 53 53 62 58 60 71 74 73 80 77 78 79 80 83 82 72 76 75 94
42 46 34 46 40 37 35 33 33 34 35 42 38 37 31 32 33 35 34 31 35 36 37 43 50 52 55 65 70 58 82 81 84 79 84 82 83 82 72 71 72 73 90 80
46 59 59 49 48 43 58 46 37 32 31 33 40 35 32 41 46 45 41 39 41 41 39 38 41 49 56 59 65 75 82 82 84 88 86 83 77 72 67 71 79 80 90 99
61 62 68 72 63 63 38 38 33 36 37 36 36 39 44 49 49 43 40 40 40 40 40 42 46 49 54 59 64 72 78 85 90 87 80 74 72 70 72 78 90 99 99 82
59 74 79 71 76 52 40 35 38 35 36 36 45 51 52 50 42 49 42 37 36 37 38 40 45 50 57 68 76 82 87 90 82 72 71 71 72 84 97 98 96 99 69 62
66 73 74 84 72 75 55 37 26 36 56 41 46 50 52 49 60 68 51 47 42 42 43 46 48 53 68 77 84 86 81 71 64 65 69 80 94 98 99 88 78 65 56 57
86 92 82 95 80 70 49 35 28 41 47 41 44 45 47 59 57 54 53 51 50 50 52 54 58 60 67 73 75 72 66 65 72 80 84 95 99 97 87 64 53 52 48 35
73 89 89 90 78 66 41 36 37 43 46 40 44 46 53 55 59 56 56 57 57 57 59 61 61 63 64 63 64 62 64 82 97 100 99 88 76 66 59 54 46 36 40 44
57 67 76 70 70 56 54 42 37 36 39 48 44 48 43 57 58 59 61 62 61 60 59 58 56 59 64 67 70 72 78 83 80 74 69 59 54 47 37 34 34 36 38 39
57 61 77 68 69 80 74 53 44 43 42 49 52 52 50 53 60 63 65 65 64 64 63 64 64 66 70 71 72 70 64 57 54 50 43 38 39 41 41 41 42 44 45 48
63 61 81 89 79 75 73 63 57 55 56 58 64 60 58 57 66 66 69 69 71 73 77 76 74 76 74 67 61 56 51 47 46 46 48 49 54 57 58 58 64 68 69 79
58 68 80 85 71 67 74 69 64 61 63 62 60 68 72 67 67 69 74 78 83 82 77 71 68 65 62 54 50 53 54 52 50 49 52 55 56 58 64 69 60 66 75 76

GFSCGP_850_rhum_054.txt.gz
RH
39 40 42 38 39 35 35 34 32 25 20 29 39 40 61 70 75 74 83 87 86 67 54 67 66 65 60 66 71 69 79 73 57 43 72 86 86 88 90 82 94 86 76 68
38 45 36 34 36 32 32 32 33 27 27 28 32 35 36 62 64 65 71 80 77 72 71 66 66 67 58 58 62 74 80 80 64 54 61 77 77 82 86 94 91 74 65 72
46 32 32 34 31 29 30 31 33 32 30 24 28 28 34 46 66 71 74 64 69 64 63 68 66 58 57 57 56 60 69 65 66 66 63 74 83 84 83 93 81 69 73 77
42 34 30 34 34 31 32 30 33 36 35 36 27 32 28 38 65 69 67 70 65 61 58 60 64 66 56 56 61 67 71 70 66 69 62 62 73 72 73 82 80 76 82 79
35 37 36 36 34 32 33 33 34 35 38 40 37 42 35 31 44 62 67 63 60 55 55 59 60 52 56 61 59 63 70 70 67 69 67 67 69 76 90 88 80 85 84 77
33 34 32 30 32 30 31 37 42 49 49 51 39 41 42 36 33 44 50 60 58 56 58 61 61 64 64 65 65 64 63 62 61 60 56 66 76 86 98 91 84 84 80 77
32 32 31 32 32 33 34 42 54 62 67 56 43 47 43 31 28 28 36 46 51 52 53 54 54 59 62 56 59 60 63 64 63 64 61 73 73 98 100 90 84 74 78 75
45 46 35 32 33 35 37 40 60 45 65 49 46 49 37 30 33 30 29 24 34 48 50 49 47 49 51 49 51 55 54 59 62 68 74 83 84 100 96 92 81 77 68 62
47 38 40 37 36 32 42 45 40 64 71 81 53 41 27 33 32 37 34 34 31 34 44 46 46 44 44 45 44 45 49 53 58 64 80 89 97 99 93 80 71 61 64 72
36 35 44 40 37 35 32 39 46 58 51 55 46 40 40 31 35 36 41 36 39 40 40 41 42 43 43 43 45 49 51 52 55 63 80 78 91 93 88 71 64 67 73 78
41 33 36 41 41 36 44 42 45 46 57 55 64 48 34 27 34 33 35 34 33 33 37 35 34 34 38 41 45 49 58 57 60 71 82 81 77 83 88 84 79 79 83 87
40 44 54 45 36 34 36 42 46 66 47 64 75 56 28 27 29 33 30 30 32 35 31 31 34 38 39 38 41 43 49 58 62 69 74 73 79 82 84 85 88 89 91 95
45 47 50 42 38 44 45 48 47 56 62 62 71 54 30 31 30 26 30 26 28 32 38 38 42 41 41 42 45 48 54 61 59 58 62 71 71 76 93 100 95 87 89 92
32 54 43 44 39 40 51 49 51 51 74 58 62 42 34 31 32 29 23 21 23 29 38 42 40 39 45 50 55 60 59 55 57 60 64 68 80 88 99 90 86 84 84 95
39 43 51 40 34 36 35 33 48 47 46 50 42 50 38 36 38 30 26 23 25 25 30 39 49 56 62 65 67 57 56 59 63 67 73 96 100 96 84 84 82 93 97 93
48 47 39 44 41 41 38 35 46 41 38 44 40 42 38 33 37 41 40 40 50 50 47 45 51 56 59 62 70 71 64 67 77 91 100 98 95 88 84 86 98 93 93 92
50 61 60 50 49 44 60 46 40 37 38 40 48 41 38 44 47 49 49 52 55 54 49 44 45 49 56 63 69 78 86 89 88 89 94 90 88 88 89 87 92 90 86 96
60 58 67 74 63 66 43 40 39 43 37 35 37 35 43 50 56 53 51 49 48 49 49 48 48 50 53 60 67 78 88 95 96 95 92 91 90 84 85 86 94 98 100 99
61 71 78 72 73 50 41 38 41 39 38 40 42 55 56 53 52 60 54 47 45 45 45 44 46 46 51 63 74 82 88 94 97 96 90 83 78 82 94 99 96 97 100 85
63 68 68 82 68 63 49 38 31 31 46 44 50 64 63 55 53 67 60 55 51 49 47 48 50 54 68 73 86 90 93 94 89 82 80 86 98 98 97 99 98 97 72 56
85 89 73 93 77 71 53 35 27 43 48 40 41 49 53 56 51 56 58 54 53 53 56 61 67 68 75 83 87 86 79 75 77 78 83 96 98 99 89 74 64 58 52 45
73 82 87 86 81 66 40 36 41 42 34 34 41 43 50 48 60 59 59 58 60 60 63 66 64 69 73 72 72 69 68 75 87 97 90 76 67 61 56 49 42 37 36 37
69 66 74 68 70 54 42 38 30 29 33 40 39 42 40 47 60 62 62 62 62 62 62 62 62 66 73 77 79 81 84 81 76 66 55 48 41 38 40 42 45 47 49 55
58 58 66 64 65 73 66 52 42 35 34 37 37 40 41 44 59 62 64 64 63 63 62 65 66 68 71 71 71 68 65 57 50 44 40 41 43 44 48 52 57 60 61 64
67 64 78 77 80 76 71 62 49 44 42 43 45 43 46 47 64 64 66 67 67 68 70 70 68 70 69 64 58 51 44 40 39 41 43 43 44 47 47 50 53 50 48 44
67 73 78 74 59 55 57 55 55 50 51 52 50 59 60 59 62 68 71 72 73 74 76 75 72 65 59 51 43 42 41 39 39 41 42 41 35 23 14 9 7 7 7 9

GFSCGP_850_rhum_057.txt.gz
RH
40 35 37 33 36 32 32 33 30 25 22 36 37 34 44 89 90 82 79 80 73 54 73 68 68 63 63 62 66 73 62 63 63 47 43 53 61 57 66 80 74 77 86 91
36 42 35 32 36 36 32 32 30 27 26 28 29 26 30 74 81 74 71 69 63 63 59 66 64 67 66 53 54 65 66 66 70 57 40 42 50 65 78 85 84 77 92 88
43 32 34 35 33 34 31 32 34 32 30 25 24 23 32 51 65 71 69 68 67 61 62 66 66 64 67 59 51 54 61 65 79 74 52 40 60 78 88 90 82 86 89 78
36 34 34 35 35 31 33 30 33 34 34 32 27 33 28 30 54 60 61 67 69 73 51 58 61 60 60 54 55 55 60 69 74 80 69 53 55 64 69 66 70 86 82 76
33 38 38 38 34 32 32 33 34 35 37 37 36 34 27 30 30 44 55 62 67 61 50 45 52 54 56 59 58 58 60 67 73 76 80 69 68 74 69 73 88 93 83 78
32 34 32 30 33 32 34 38 39 42 42 44 36 34 30 26 26 27 33 50 67 51 46 45 49 53 52 54 53 55 59 60 66 72 74 76 75 74 74 79 98 97 87 86
34 33 31 33 33 34 33 36 44 52 53 45 43 42 31 27 26 26 26 34 52 54 49 43 46 50 54 53 55 53 54 56 62 70 74 73 70 76 88 98 99 94 92 91
36 37 35 35 32 34 37 36 50 44 48 40 42 43 24 29 27 33 33 31 32 44 45 44 37 39 44 50 52 54 50 52 59 63 70 70 66 74 78 98 100 100 92 90
47 37 37 38 37 31 41 40 38 58 69 63 43 33 22 26 27 32 37 30 29 30 46 46 49 46 45 47 44 43 50 52 56 59 65 63 69 76 77 90 99 98 89 82
39 37 44 40 38 39 35 36 45 49 54 54 40 37 27 24 28 32 30 36 30 32 33 38 45 50 50 47 48 49 52 55 58 62 65 64 76 83 89 99 99 99 90 87
37 33 36 42 39 35 42 41 44 40 46 45 48 34 32 24 27 33 34 33 32 26 29 33 36 39 44 48 49 49 51 56 61 59 65 70 74 86 99 100 99 100 93 86
39 44 53 38 37 35 36 39 41 53 48 58 57 42 28 29 27 30 31 28 30 29 28 29 32 35 36 38 38 39 46 53 61 64 69 70 84 93 87 79 75 91 96 91
45 45 45 36 36 43 42 42 44 50 55 55 65 43 27 29 27 27 28 23 27 33 36 31 31 33 37 40 42 46 52 55 59 61 67 64 64 70 69 80 98 100 100 100
32 48 40 37 33 37 51 49 46 45 59 51 50 38 30 28 28 27 29 24 23 22 28 40 44 41 40 46 52 59 60 61 62 69 72 77 79 93 99 100 100 85 98 99
41 43 45 36 32 37 37 41 49 44 42 48 39 42 32 30 29 31 35 30 35 38 32 41 54 59 63 67 68 72 73 81 88 96 99 100 100 100 100 100 100 99 98 99
47 44 51 43 43 38 37 35 43 44 41 42 38 39 32 32 36 45 51 54 58 62 57 57 57 61 64 70 75 82 91 95 99 98 100 99 100 100 99 96 92 91 97 100
53 60 59 50 48 44 59 48 41 40 39 39 46 37 35 37 44 52 63 64 66 62 57 53 51 54 60 67 73 77 83 89 92 94 95 96 98 93 90 92 97 99 100 99
61 60 64 68 63 68 38 40 36 38 38 35 34 32 34 42 64 59 61 59 62 60 54 49 48 48 53 59 66 76 90 96 98 94 96 96 94 95 99 99 99 98 93 96
55 66 72 74 62 49 36 36 40 40 30 36 34 35 48 63 62 65 57 54 52 52 51 49 49 51 58 68 80 86 92 97 97 96 95 95 93 92 100 100 95 99 100 100
64 63 69 72 64 65 47 35 34 30 41 34 37 48 56 59 54 49 58 56 53 54 57 58 62 68 70 80 91 89 95 93 91 90 88 87 92 93 99 100 99 86 68 60
76 76 66 76 71 60 45 39 28 44 36 34 40 48 57 50 47 49 57 58 59 62 64 67 72 72 78 89 91 88 88 86 85 84 82 84 98 95 84 64 60 55 50 43
68 74 80 77 75 58 45 36 42 39 31 26 39 45 57 48 55 59 62 64 66 65 70 70 68 73 79 80 77 77 75 77 80 91 98 82 65 56 48 42 37 35 38 41
74 62 68 60 60 50 37 32 26 27 27 31 34 44 46 50 61 65 66 67 68 68 69 70 68 70 71 72 73 76 86 85 76 68 57 48 42 40 40 41 42 41 44 49
66 67 63 55 56 57 49 42 39 33 32 29 32 38 44 47 62 66 67 68 67 67 67 68 69 74 79 79 75 71 66 60 52 44 40 39 39 39 39 38 33 20 10 8
60 69 68 68 64 71 57 46 42 42 40 40 43 41 45 44 62 62 65 66 66 68 69 69 68 68 68 66 62 56 50 47 40 36 36 35 29 18 11 8 7 7 8 12
64 64 71 67 48 43 38 32 40 45 47 45 41 53 53 47 55 64 67 68 69 71 71 70 70 67 62 54 45 42 41 38 34 29 19 13 10 7 6 6 7 8 9 12

GFSCGP_850_rhum_060.txt.gz
RH
28 25 26 19 19 26 20 20 18 17 18 26 23 21 17 40 58 48 44 46 54 61 67 78 80 80 75 70 78 84 86 89 95 90 58 73 75 81 77 89 81 78 69 71
29 27 20 22 24 27 24 19 18 20 20 23 19 18 16 25 46 46 44 48 46 52 61 72 83 81 82 72 76 81 88 92 78 79 70 66 57 78 86 88 69 72 78 74
24 22 24 26 26 28 25 23 22 21 21 20 20 17 19 28 41 51 56 50 42 43 50 63 76 83 84 79 80 81 85 90 89 92 84 80 81 87 72 80 61 74 72 76
23 20 26 25 26 23 26 19 21 22 21 23 20 24 18 18 28 36 40 48 46 42 45 51 66 74 80 81 82 82 84 90 95 88 88 86 70 68 77 81 64 72 75 86
23 26 27 26 22 22 22 23 24 23 23 27 24 23 17 20 19 23 31 37 43 45 42 46 54 64 72 77 84 87 85 88 95 96 91 90 73 67 78 96 77 77 81 90
19 25 23 21 23 23 23 27 28 28 28 33 24 23 18 15 15 16 17 27 33 41 47 45 45 58 64 74 80 66 69 84 88 76 72 80 97 91 96 73 76 83 90 94
24 23 22 25 26 27 26 26 35 42 39 34 28 28 19 16 17 18 19 21 24 34 42 49 48 50 59 68 80 73 67 79 81 78 69 73 82 82 70 70 74 82 90 93
26 30 23 24 24 24 27 25 31 38 36 30 30 26 17 18 18 22 26 28 29 28 40 43 49 51 56 66 77 60 51 65 81 72 62 73 68 62 64 62 74 84 89 100
25 22 23 25 25 23 31 32 25 37 51 44 25 20 16 16 17 22 21 24 27 28 34 41 42 49 57 65 74 67 61 73 85 79 89 77 61 62 59 59 68 96 100 99
23 26 26 32 29 30 29 24 34 33 42 39 27 25 18 17 20 16 16 18 22 32 35 38 42 45 54 60 71 84 79 80 88 97 92 78 71 63 70 74 92 94 99 100
20 22 39 34 32 26 32 32 31 28 31 37 36 25 16 16 17 22 22 22 24 29 36 40 43 46 53 62 72 82 79 81 86 92 98 75 79 78 88 91 91 96 97 100
21 22 30 27 29 27 23 26 28 34 34 37 40 30 14 16 19 19 20 23 28 34 37 40 44 49 56 63 70 76 79 82 84 94 98 78 83 87 90 91 92 88 99 99
24 27 33 30 31 32 28 26 24 28 33 32 48 30 18 20 20 20 19 20 26 32 36 43 48 52 58 65 72 78 86 89 93 91 84 99 100 98 99 96 98 100 100 100
26 23 27 32 23 19 28 26 25 27 36 28 30 24 18 18 17 16 20 24 24 26 28 40 50 58 69 77 73 58 60 65 73 84 97 100 99 100 100 99 100 100 96 91
26 27 25 20 18 16 18 18 21 24 24 25 24 20 22 19 18 18 27 30 37 42 42 41 55 65 73 86 93 82 81 91 97 99 97 99 97 99 99 99 100 100 100 100
32 28 28 29 22 22 22 20 18 21 20 26 24 23 18 19 23 26 33 39 46 57 63 63 66 77 91 97 96 90 95 100 100 100 98 98 98 99 100 99 100 99 100 99
37 33 38 35 31 32 51 32 22 23 26 26 26 22 17 22 24 28 39 46 54 65 71 78 84 90 94 85 88 88 93 98 95 94 100 99 100 95 96 97 96 99 100 100
46 38 41 41 63 77 25 26 21 23 21 20 21 21 20 21 28 42 51 54 61 67 74 79 85 85 82 81 81 87 93 93 91 89 90 93 91 92 95 97 98 98 94 98
43 44 58 75 48 29 30 30 31 30 25 19 22 19 21 35 44 52 59 59 64 71 74 78 81 82 86 84 87 88 93 94 89 92 96 98 96 92 94 94 96 98 98 99
48 49 49 60 54 73 27 21 24 24 35 17 19 20 24 40 41 27 60 62 67 71 75 77 80 85 85 88 88 87 91 91 94 99 98 95 97 90 97 98 98 94 89 82
68 66 71 59 63 38 28 26 26 36 34 21 21 22 33 39 33 49 61 66 67 70 74 81 82 82 84 87 90 92 97 100 99 98 89 87 100 98 87 75 64 58 62 36
58 67 80 59 83 71 32 30 30 23 33 25 30 29 37 49 61 63 65 67 72 75 78 80 82 85 87 89 90 94 95 94 82 79 91 91 69 56 47 43 47 51 73 72
62 48 52 48 42 38 32 22 26 33 25 34 32 36 42 60 61 64 66 69 71 72 75 81 85 89 88 84 81 80 84 88 91 78 64 50 40 34 31 34 35 55 47 39
47 53 59 52 29 35 39 32 44 39 36 39 38 45 59 56 63 66 69 70 70 70 74 79 82 84 85 82 80 78 73 67 59 49 39 35 31 32 25 19 14 30 21 19
36 49 42 42 35 48 47 44 36 47 41 36 39 51 54 59 63 67 70 70 68 71 77 78 82 85 82 76 69 65 61 50 41 35 31 27 18 11 18 21 8 8 14 8
43 40 58 52 31 39 27 39 43 49 52 46 50 57 61 60 62 68 69 68 72 75 77 83 86 74 68 64 60 50 42 37 32 25 16 12 9 8 10 27 55 22 12 11

GFSCGP_850_rhum_063.txt.gz
RH
22 22 22 17 16 14 17 14 13 14 14 17 18 22 16 27 27 30 33 36 45 46 48 56 62 63 60 67 72 72 71 74 79 76 72 64 67 70 71 74 81 90 92 87
22 25 16 15 16 19 18 17 14 14 14 17 16 20 16 16 27 26 30 30 38 44 47 52 60 64 59 63 67 68 68 71 77 74 71 59 55 60 65 72 82 97 96 87
23 18 14 18 18 21 20 18 23 21 23 15 16 16 14 14 22 28 30 30 33 38 43 51 56 63 63 61 66 68 65 67 71 68 68 60 59 59 68 69 79 87 98 80
20 15 18 18 20 19 23 15 16 17 18 22 24 30 26 15 19 24 30 36 36 32 38 46 55 64 68 63 63 64 66 64 68 73 65 65 57 55 60 70 74 89 91 70
20 17 20 22 20 17 20 19 18 18 22 23 21 18 30 14 12 15 22 34 32 29 31 36 46 55 62 68 67 68 66 66 67 74 75 72 68 61 63 71 74 84 96 92
17 14 16 17 15 17 16 20 20 20 21 35 23 21 25 17 12 10 11 20 27 29 27 30 35 45 51 59 67 71 71 67 68 73 80 80 78 76 61 62 86 94 99 83
19 19 16 16 21 19 20 23 32 39 51 36 27 20 21 22 12 12 13 13 19 25 30 31 30 38 46 52 62 71 74 68 71 75 81 88 87 86 79 77 97 85 88 90
23 27 19 18 18 22 23 22 34 52 45 52 21 21 18 12 12 14 16 18 19 20 25 31 34 32 40 47 56 66 70 74 71 80 86 90 95 94 94 90 68 76 64 80
21 20 14 15 16 17 23 27 22 32 29 33 21 16 12 12 11 14 15 17 18 21 21 26 31 36 36 44 53 64 68 70 73 77 84 92 96 100 100 96 77 71 71 76
17 22 15 17 18 18 26 20 30 26 44 41 22 19 19 15 16 13 13 14 15 21 24 27 30 34 40 43 49 60 72 71 72 74 87 97 95 99 99 100 84 78 67 80
15 19 23 24 26 21 25 29 25 30 38 39 32 21 15 14 13 14 15 14 16 18 25 31 32 32 35 42 52 62 71 76 78 78 84 95 100 88 97 100 100 96 90 95
16 20 29 27 15 15 18 22 23 32 29 27 31 28 13 13 12 14 14 16 17 22 23 29 35 38 39 44 48 58 68 74 74 75 81 91 100 100 99 99 99 100 100 100
18 23 30 25 26 21 23 21 21 23 23 33 50 31 14 14 15 14 14 14 18 21 22 25 33 39 45 50 55 61 70 70 71 75 83 96 98 98 98 99 98 97 98 100
22 21 25 29 24 21 24 20 19 23 38 31 26 20 16 14 15 14 13 16 16 19 20 25 31 39 48 56 62 68 82 87 91 91 96 99 98 100 100 100 100 100 100 100
22 26 22 18 16 16 16 18 19 21 22 28 22 19 14 14 14 14 19 20 21 25 25 23 34 41 55 70 90 97 90 90 92 100 98 98 100 99 100 100 99 99 100 99
22 29 25 23 18 16 18 15 14 14 15 16 15 16 12 13 12 16 19 22 26 34 39 40 40 51 63 82 99 97 99 99 99 99 99 99 99 98 100 100 100 99 99 99
28 33 31 36 21 21 34 20 17 16 15 16 21 17 13 14 14 16 18 26 31 45 51 53 57 71 81 91 100 100 100 100 98 98 98 98 99 100 100 100 100 99 100 99
30 31 34 48 63 60 24 16 16 18 16 14 15 14 13 13 14 18 24 29 42 51 61 68 74 80 86 90 95 98 98 99 99 99 100 100 99 94 94 93 96 95 96 97
39 36 45 59 48 29 20 23 22 20 19 14 14 13 12 16 26 33 37 39 48 56 61 67 73 78 80 81 83 85 87 90 92 92 95 98 96 90 91 91 90 97 100 100
33 42 52 53 54 59 28 19 17 16 31 16 14 15 16 23 36 20 41 49 57 59 62 67 71 73 76 78 79 81 84 85 90 95 99 100 100 100 99 98 97 91 96 84
62 65 72 57 56 34 19 17 16 38 33 14 15 16 17 22 24 34 48 55 55 58 63 69 70 70 72 75 80 80 84 88 94 98 100 99 92 95 94 86 81 73 68 69
64 66 83 62 71 68 26 25 29 26 18 19 19 18 20 28 45 47 52 53 56 61 68 66 68 71 75 78 80 83 89 93 93 92 87 86 77 67 69 69 69 66 68 77
64 41 52 44 41 29 29 24 24 21 23 24 23 21 26 42 47 50 52 55 59 62 62 66 69 74 77 78 81 79 82 82 84 81 77 74 68 62 59 59 60 49 50 58
34 31 48 41 31 28 28 31 29 30 30 27 30 28 32 46 47 49 52 56 59 59 63 67 74 76 74 72 71 76 78 78 77 73 70 63 55 49 41 39 39 45 50 36
27 25 35 35 26 22 30 36 36 29 34 33 34 31 36 46 47 49 53 57 56 58 63 71 71 72 73 74 76 75 73 70 66 60 52 46 32 36 42 43 30 19 10 7
23 27 45 48 28 34 30 31 37 34 33 42 38 36 44 44 47 51 54 57 56 60 67 69 74 76 77 78 76 74 67 59 52 48 40 27 21 19 40 46 45 31 30 14

GFSCGP_850_rhum_066.txt.gz
RH
21 23 24 20 19 18 16 16 17 16 15 17 16 18 38 46 35 35 33 42 49 44 55 68 78 65 67 80 70 72 74 75 76 65 75 75 74 62 63 62 74 81 78 70
23 28 18 16 15 16 18 18 16 14 15 15 14 16 27 30 21 21 28 33 39 42 50 56 58 62 67 75 76 77 76 74 75 76 71 69 72 67 66 70 71 83 85 78
27 21 17 16 17 18 18 16 20 24 17 15 17 17 17 15 19 19 24 26 38 39 43 53 61 60 64 69 72 71 71 71 73 76 67 66 62 62 66 68 72 81 84 73
21 16 17 17 20 17 21 14 18 17 19 22 21 34 26 19 16 21 21 25 28 35 38 47 56 62 61 64 68 70 68 67 73 71 70 68 61 57 61 64 69 71 80 79
20 18 18 21 17 16 20 19 21 18 19 21 23 35 24 19 17 16 21 26 30 32 37 44 49 58 60 62 63 67 66 64 66 68 66 64 59 58 55 60 65 73 88 84
16 14 14 16 15 16 15 18 20 21 22 34 22 28 29 22 23 14 20 26 31 32 32 38 47 52 61 63 64 63 65 64 64 67 68 66 68 62 57 59 65 72 79 78
18 17 14 13 18 16 17 22 36 43 43 42 22 25 24 27 20 16 12 24 29 28 28 31 39 50 56 61 64 66 64 65 63 64 70 68 74 76 64 63 65 70 72 57
27 29 17 15 18 19 22 22 38 58 83 62 43 28 17 16 13 12 13 13 18 24 26 27 29 42 50 55 60 66 70 67 66 64 70 76 75 79 84 69 70 69 71 56
26 23 14 15 16 16 23 30 21 58 59 71 52 25 14 12 11 11 13 15 16 17 22 28 29 29 42 48 55 61 69 71 69 66 67 71 50 80 74 85 85 72 69 78
20 29 16 16 15 15 18 19 31 34 74 45 22 20 21 17 14 13 12 14 16 20 21 20 28 31 32 41 48 55 59 68 71 69 71 72 80 84 88 91 91 77 74 98
19 24 23 17 19 20 20 27 31 24 27 46 52 35 32 21 14 14 15 14 16 18 24 26 27 29 34 35 43 50 58 61 66 68 71 74 84 90 79 73 69 85 100 100
20 24 33 22 16 16 16 22 28 40 39 40 52 36 27 24 13 14 14 15 15 17 20 28 31 31 34 38 40 52 60 66 68 68 71 76 81 75 71 94 96 100 100 100
24 27 33 35 23 19 19 18 21 24 28 36 62 37 15 14 14 13 14 14 15 17 18 24 32 36 37 37 41 49 60 66 70 72 70 76 72 84 100 98 98 99 99 100
31 24 27 39 33 23 23 19 24 27 48 39 37 31 23 17 18 14 14 14 14 17 18 20 27 35 41 46 48 55 63 67 66 72 74 81 95 98 98 99 100 100 100 100
29 32 26 20 19 19 21 20 19 19 24 37 29 22 18 15 14 15 18 18 16 16 18 19 24 36 47 55 59 62 69 73 74 82 93 97 99 96 100 100 100 98 100 100
32 34 30 32 21 20 21 17 18 17 17 18 19 21 14 12 11 12 16 19 20 21 28 27 26 42 58 68 74 84 89 89 96 99 100 98 99 98 99 99 98 100 99 100
37 40 37 43 25 24 34 23 17 16 16 16 20 17 13 13 13 14 14 16 20 31 39 42 38 60 75 86 82 91 98 98 98 98 98 99 99 98 98 99 99 97 98 98
47 40 39 58 62 56 26 17 15 19 16 14 13 13 13 13 12 14 16 19 26 38 47 51 63 77 87 92 96 98 97 98 99 99 98 98 99 100 100 99 96 94 94 95
38 55 65 62 55 34 24 21 21 22 22 16 16 14 12 12 17 28 27 28 33 45 56 66 74 81 88 91 96 97 99 100 100 100 100 100 98 99 99 91 90 91 97 99
37 51 63 68 60 65 37 21 17 20 35 18 16 19 17 21 41 27 31 38 45 53 61 70 77 82 83 84 85 85 88 90 90 93 99 100 100 96 89 87 90 93 84 88
71 64 66 64 66 48 26 22 18 38 40 21 17 17 17 24 26 28 33 45 51 55 61 67 71 73 75 78 80 81 84 87 92 96 98 99 99 93 88 91 89 87 76 73
70 69 74 70 69 69 26 23 31 29 23 20 19 17 17 29 28 32 42 50 52 54 60 66 68 70 73 76 77 80 85 90 94 96 98 88 88 86 84 76 69 61 67 76
68 51 57 48 53 37 27 26 22 21 28 26 25 22 20 28 35 41 48 50 51 55 63 64 66 69 74 76 78 83 89 91 93 88 82 74 67 67 68 70 65 64 59 55
48 54 70 82 35 31 32 29 27 28 29 29 28 28 26 32 41 46 49 49 53 56 59 61 67 73 75 76 80 83 85 84 82 77 73 67 61 55 49 47 40 43 41 41
32 43 54 60 46 36 33 29 28 32 32 30 30 32 29 38 44 46 48 51 54 56 57 62 70 73 76 75 75 77 79 78 75 71 65 59 50 41 38 40 32 23 18 12
26 26 42 51 30 40 37 43 38 37 36 37 34 36 33 37 45 46 48 52 54 54 59 66 72 72 69 72 74 75 73 69 65 56 52 45 32 33 43 37 34 32 26 23

GFSCGP_850_rhum_069.txt.gz
RH
26 35 35 32 28 25 25 24 24 19 17 22 26 40 50 46 49 66 54 66 73 68 68 73 62 82 93 94 84 63 62 59 65 60 60 51 53 58 57 52 44 45 47 40
34 36 26 22 23 24 23 25 25 20 19 18 18 21 48 52 52 49 67 67 67 76 76 84 63 63 66 63 64 69 64 68 64 55 71 84 77 73 64 56 58 44 42 60
38 29 23 24 24 23 23 24 26 26 22 22 21 26 47 36 38 40 50 56 51 73 80 78 64 62 57 55 57 66 74 81 80 78 87 78 71 63 57 50 55 59 65 80
32 24 24 26 25 21 25 20 20 25 28 34 24 40 28 26 32 30 38 49 48 70 69 73 64 65 68 70 66 68 74 75 82 72 63 56 66 66 60 46 57 68 72 77
31 27 27 28 24 20 24 22 22 27 30 29 29 48 44 34 28 30 33 45 45 54 61 67 61 59 60 69 74 75 81 82 73 70 74 57 59 60 60 61 62 66 77 78
24 18 20 22 20 19 18 20 25 26 32 47 32 51 57 37 25 26 28 38 40 48 54 55 56 58 58 63 65 63 72 66 59 55 77 76 67 66 64 63 66 68 69 71
24 23 17 17 22 21 21 25 50 60 66 61 39 47 40 31 26 24 25 34 30 37 50 56 60 60 60 60 64 63 64 70 68 65 64 67 70 65 60 57 58 63 69 76
34 38 22 17 20 25 27 32 59 60 78 70 50 48 30 25 21 17 19 28 31 30 37 46 50 53 56 59 61 62 63 68 72 68 67 65 62 66 67 64 57 58 60 63
33 32 17 17 18 20 30 37 33 72 69 91 73 42 22 22 19 16 15 26 32 35 33 40 45 47 53 56 61 62 63 63 65 67 67 68 71 67 68 71 64 63 64 65
27 35 22 20 19 20 24 25 43 64 97 97 57 49 35 38 29 19 16 16 20 27 31 31 38 46 47 49 52 57 59 62 63 64 64 63 66 73 70 70 67 71 71 74
23 31 35 26 26 25 28 28 34 47 63 73 66 56 38 34 27 18 23 17 19 20 21 25 31 33 38 43 47 49 55 58 61 64 63 68 66 69 79 79 83 85 86 78
25 41 48 36 23 18 21 28 40 66 52 58 73 59 26 32 20 22 18 16 17 19 20 20 28 32 39 44 44 47 50 54 55 59 66 69 70 70 78 91 90 73 91 100
36 54 66 43 30 20 24 26 25 38 51 59 76 60 26 26 19 18 18 16 17 18 23 23 22 24 37 42 51 54 64 75 78 67 74 70 72 80 70 74 88 98 99 100
32 41 47 52 49 32 32 27 24 35 59 52 63 43 30 27 20 18 16 14 17 17 20 24 24 22 36 40 48 55 61 67 50 60 68 69 57 67 84 100 100 99 100 99
42 49 42 38 34 32 31 28 24 28 38 54 44 39 31 26 24 20 19 15 16 18 18 27 28 35 34 32 48 60 57 52 58 55 72 63 88 100 98 98 98 99 100 100
42 50 42 43 33 28 35 29 24 23 24 26 31 36 25 19 16 20 19 18 18 20 20 21 36 39 42 36 32 63 85 87 85 79 76 98 100 100 98 100 100 100 99 99
43 48 51 56 41 36 52 36 37 29 22 24 30 27 21 19 16 17 21 20 24 25 23 26 36 47 49 50 49 52 71 94 100 100 98 99 96 98 97 94 99 100 99 98
56 46 60 67 54 61 36 26 26 27 24 20 18 18 17 16 14 15 16 19 23 26 30 34 39 49 58 63 64 70 77 85 99 99 100 98 93 94 95 98 98 96 93 92
47 66 76 67 59 47 37 26 27 29 31 20 19 20 18 14 24 28 21 22 28 30 37 44 59 66 71 78 80 81 81 92 94 93 94 97 96 99 100 94 89 92 93 98
44 56 80 81 63 59 42 34 24 22 44 25 21 23 24 25 43 41 28 26 31 35 40 50 62 69 75 77 77 70 98 98 99 99 100 99 98 84 81 81 86 90 99 99
76 74 79 87 86 67 38 29 24 43 52 26 23 21 22 33 35 25 30 33 30 39 50 59 65 72 78 80 78 82 94 92 86 87 93 99 99 87 85 88 90 87 87 89
77 82 86 85 84 80 32 26 37 40 22 20 26 23 26 21 23 26 28 33 40 46 58 63 69 79 85 89 88 88 90 90 89 91 97 99 89 86 83 80 85 84 90 86
81 74 76 70 70 48 34 40 26 27 30 31 28 28 30 28 28 31 35 39 45 51 62 68 71 77 79 80 81 83 87 90 94 94 97 93 89 88 86 83 77 74 70 63
51 51 71 60 56 69 54 58 50 36 33 32 30 30 31 33 33 34 39 43 50 54 62 68 71 74 77 78 81 83 89 93 95 96 92 86 80 76 72 68 63 62 65 63
62 57 66 68 58 55 44 57 36 44 42 34 36 34 30 31 36 35 41 46 50 55 63 66 70 73 77 79 82 86 89 93 94 86 78 69 67 65 65 66 58 48 48 47
41 56 76 71 52 50 43 34 28 33 40 34 33 36 35 34 37 39 41 46 52 58 61 64 71 76 79 82 86 87 88 86 81 76 68 60 54 45 42 40 36 31 24 20

GFSCGP_850_rhum_072.txt.gz
RH
30 37 39 33 33 28 31 32 34 27 20 22 29 43 54 56 61 68 72 76 78 77 79 74 84 90 88 99 99 100 98 93 92 68 76 73 63 67 72 75 66 51 49 39
37 41 30 29 30 31 31 34 34 26 21 21 21 22 50 60 56 61 65 66 60 81 86 69 76 80 86 95 99 97 97 91 86 67 60 63 62 68 64 54 45 42 39 38
41 35 27 29 30 31 30 33 32 28 23 25 23 29 52 45 51 56 58 42 57 72 80 69 70 68 68 83 94 86 77 71 72 62 67 64 68 66 58 53 48 40 41 49
38 31 32 32 32 28 35 25 25 25 31 38 25 42 45 42 46 49 54 51 52 74 74 67 60 61 60 62 69 63 62 59 56 53 51 47 52 55 60 56 52 45 48 45
36 36 36 36 31 26 31 27 27 27 32 32 33 46 42 36 38 41 48 55 57 61 70 67 57 48 44 57 62 62 59 58 53 55 58 72 73 71 63 61 55 48 46 55
27 23 28 29 25 25 24 26 28 35 38 49 36 47 49 44 34 33 44 50 56 66 71 61 56 54 52 49 50 60 71 74 72 68 69 76 80 72 63 53 52 50 44 48
26 26 24 21 27 25 26 32 48 52 64 61 44 51 42 29 32 29 42 48 56 66 74 67 64 62 58 60 58 58 65 64 60 66 72 67 66 52 38 41 48 54 55 58
38 41 25 23 24 27 30 34 57 53 68 63 58 52 41 28 25 22 28 44 53 65 68 61 58 56 56 57 60 64 66 60 55 52 55 49 58 60 66 66 63 57 56 59
38 36 23 20 20 21 29 39 34 71 74 82 65 56 35 25 23 22 24 38 48 55 60 55 55 55 53 55 54 45 43 54 55 52 59 53 56 68 69 73 70 64 60 57
32 38 24 22 21 21 28 31 57 65 79 83 67 60 50 29 24 20 29 43 40 47 55 54 54 49 50 49 49 52 47 43 37 46 54 65 65 66 67 70 71 69 61 64
32 36 37 27 29 31 31 33 42 53 68 80 74 57 43 38 26 23 23 26 34 37 41 50 54 50 45 48 54 51 54 53 51 54 57 64 64 66 67 67 68 76 75 80
33 41 48 36 29 27 29 28 37 69 73 72 70 55 30 35 23 24 24 22 22 23 27 33 36 40 49 51 53 57 53 56 69 76 80 84 82 83 77 78 84 85 86 78
36 48 54 38 31 29 32 29 30 46 58 65 72 59 30 32 28 22 23 20 18 18 20 29 33 34 38 46 54 60 61 70 83 84 79 72 82 84 83 96 85 79 72 62
29 52 36 42 42 39 41 30 26 38 67 58 63 45 35 29 28 22 20 18 19 18 17 18 29 24 27 40 48 58 61 70 79 79 59 39 67 88 74 74 76 84 82 85
41 53 43 40 39 40 40 37 33 32 40 47 42 44 34 32 31 24 17 16 19 22 22 21 28 26 29 34 43 50 53 64 76 75 57 47 58 54 72 69 76 100 95 99
46 52 51 58 44 41 45 41 35 36 31 39 40 43 32 25 24 24 20 17 18 18 22 27 30 30 33 34 38 49 55 62 74 76 69 60 69 96 99 96 98 98 99 99
51 56 63 64 45 46 65 55 48 43 37 31 37 36 27 26 29 23 19 18 16 20 21 25 27 31 32 36 40 44 57 62 64 71 79 88 98 98 100 98 98 97 99 100
71 58 66 79 58 89 58 40 43 47 37 31 23 22 26 23 18 18 15 20 19 22 25 21 21 31 38 42 54 65 69 71 75 84 98 98 98 96 97 98 98 97 97 98
68 66 75 76 71 62 51 36 37 38 33 25 26 21 20 18 24 25 17 17 18 21 20 20 25 30 42 52 64 76 85 95 100 99 99 98 99 96 96 97 98 99 99 97
74 80 62 83 78 84 50 35 28 28 48 28 25 25 22 30 42 40 19 20 21 22 22 24 27 40 50 65 77 84 88 93 97 100 98 97 97 98 100 100 99 93 95 98
83 87 78 93 85 75 50 36 26 45 51 29 25 25 24 34 33 17 24 22 22 23 24 27 35 44 64 76 83 85 84 89 97 97 98 98 100 100 98 90 91 94 99 100
68 82 84 86 86 76 45 39 42 47 32 32 31 26 24 20 20 22 25 27 27 25 33 41 46 55 65 75 80 80 86 98 100 100 100 100 97 93 87 86 92 96 93 89
72 63 70 67 71 54 59 59 56 47 44 40 37 34 34 24 22 24 26 29 32 40 46 53 59 66 76 79 81 78 84 92 93 92 93 100 99 92 94 92 90 91 94 93
54 59 66 58 57 59 53 43 42 46 42 40 43 36 34 32 32 31 36 41 47 54 55 62 71 78 83 88 87 87 83 87 88 93 100 100 97 94 94 92 93 86 91 88
50 61 62 67 57 57 51 43 40 36 38 35 40 34 32 35 33 33 37 39 49 58 66 68 71 76 82 84 84 85 84 86 92 98 99 98 97 93 89 76 74 75 76 75
62 72 76 80 53 51 46 33 39 38 49 42 41 36 36 36 35 38 45 52 55 64 69 71 75 78 80 83 86 92 93 94 94 98 87 78 79 77 72 68 64 60 58 56

GFSCGP_850_rhum_075.txt.gz
RH
33 42 45 40 37 30 32 34 37 32 26 27 30 33 46 59 77 74 80 80 81 90 90 92 99 90 84 100 100 99 97 100 100 94 90 95 93 78 64 52 58 61 62 54
38 47 32 31 34 34 35 38 38 32 27 28 30 28 40 62 62 62 66 76 77 88 89 88 92 95 85 87 98 100 97 91 99 95 83 88 90 80 67 61 63 63 52 57
39 38 32 33 35 36 37 38 36 35 30 28 28 31 46 48 56 51 55 61 70 77 75 80 66 77 84 83 90 97 98 93 93 93 88 94 86 75 81 73 68 65 59 61
39 29 34 37 37 34 38 29 31 34 36 43 28 47 35 49 58 58 56 58 62 67 70 73 60 46 53 71 84 93 99 92 88 79 78 82 74 80 67 66 60 54 52 52
39 37 35 38 37 32 35 28 34 35 40 37 36 45 40 41 48 49 47 48 48 53 62 64 62 50 39 60 69 79 89 95 92 82 69 66 70 62 52 53 51 48 49 44
32 28 34 33 29 31 28 33 33 39 43 54 40 45 47 43 39 35 34 40 44 46 58 59 64 56 41 53 60 61 69 72 80 74 68 67 66 57 52 46 44 46 56 47
32 31 26 26 37 33 32 35 54 54 61 62 42 56 48 33 34 31 34 38 36 40 53 59 68 63 48 50 52 50 54 64 65 70 61 55 51 51 45 43 48 51 50 45
44 49 29 26 30 33 39 40 63 55 63 55 55 64 45 33 30 27 24 24 26 42 47 50 52 64 56 46 49 52 55 57 58 56 54 50 46 47 51 54 52 50 45 39
48 44 26 24 24 25 34 45 32 69 80 83 62 50 39 31 28 32 32 37 42 48 44 45 48 51 61 55 49 45 49 53 56 54 53 56 60 64 65 62 54 38 37 48
38 42 28 25 23 24 28 36 49 65 79 77 62 65 53 38 31 25 35 44 42 47 50 48 50 51 54 55 54 53 50 49 49 55 59 62 64 63 66 64 55 49 57 64
35 42 39 28 32 35 36 40 50 55 64 67 76 62 49 43 34 25 32 34 37 45 45 44 46 48 50 54 56 56 57 57 58 62 69 75 76 72 65 62 58 63 70 81
36 48 50 43 29 26 28 35 51 68 72 72 75 66 35 37 34 24 22 31 33 29 29 34 40 44 51 52 59 52 52 58 64 80 75 67 60 54 59 63 65 65 67 88
44 54 58 48 35 33 36 35 34 51 66 80 82 69 31 34 33 29 25 22 32 29 32 34 44 42 39 42 47 50 58 58 69 77 64 62 61 63 61 68 68 70 78 94
62 52 46 50 42 38 40 38 35 41 67 67 64 46 36 34 33 30 26 21 25 30 27 29 32 31 34 35 38 43 52 58 63 64 72 68 67 67 67 71 75 72 70 79
52 52 48 38 32 42 43 42 41 44 39 45 44 49 38 35 34 30 22 19 18 25 28 28 28 26 26 28 30 36 42 51 59 64 71 75 77 74 79 83 88 87 92 82
68 57 51 46 40 37 42 42 47 46 44 40 39 47 37 30 26 30 25 22 20 18 22 28 32 25 24 22 24 32 40 50 60 65 71 76 84 89 82 86 99 100 100 100
86 74 67 66 52 58 71 56 41 47 49 46 46 42 33 34 32 31 23 22 21 17 17 21 26 21 23 24 24 28 36 51 66 71 74 78 86 83 81 81 89 99 100 100
93 81 74 77 69 92 56 46 40 45 45 42 38 31 28 29 23 22 21 19 18 19 16 17 20 23 24 32 35 38 44 56 71 80 87 92 98 93 96 97 99 100 100 98
78 87 98 93 78 58 52 48 46 55 53 43 41 35 28 21 23 20 15 14 14 14 15 16 18 26 28 33 42 51 56 64 74 82 98 100 100 97 88 95 100 100 100 100
80 81 90 100 84 86 56 38 32 38 68 40 33 34 33 31 41 35 15 14 14 15 18 18 23 27 28 35 44 56 67 75 84 95 98 99 99 100 100 100 100 100 100 100
92 95 96 99 99 75 53 43 36 70 66 42 33 27 32 38 35 18 16 17 18 18 23 31 29 30 35 44 52 67 79 89 99 99 100 97 93 100 100 96 97 99 99 100
75 88 93 93 93 86 49 48 49 53 42 43 42 32 32 30 28 22 20 20 20 27 30 32 33 38 48 60 74 85 90 95 100 100 98 97 97 98 99 99 100 100 100 100
78 69 73 69 75 52 52 50 49 45 47 42 42 41 44 40 36 32 34 29 35 31 28 31 45 56 71 83 87 86 87 88 98 98 100 100 100 100 100 100 100 100 100 100
50 62 71 72 57 65 47 50 48 43 44 40 37 36 35 36 36 36 39 50 37 41 41 50 60 67 77 91 88 87 84 97 100 100 100 98 99 100 100 100 100 100 100 99
52 56 66 67 63 59 53 46 36 33 35 37 38 33 33 35 38 39 43 46 54 58 66 65 67 72 80 92 94 93 90 92 96 96 98 98 98 99 100 100 100 100 100 99
72 76 76 55 44 53 42 29 27 28 46 44 45 41 38 38 36 40 49 52 60 66 71 75 82 84 87 92 94 94 92 90 88 93 99 98 98 100 99 96 98 95 92 91

GFSCGP_850_rhum_081.txt.gz
RH
47 44 49 40 36 29 30 30 28 26 26 26 24 24 20 23 57 59 69 79 93 88 93 97 98 97 98 98 99 100 100 100 98 97 100 99 100 80 84 66 63 64 61 63
45 50 39 35 39 37 31 32 29 28 26 28 24 25 22 24 30 49 58 70 79 87 88 88 99 99 97 98 97 100 100 99 98 98 98 100 99 84 93 79 73 67 55 57
37 39 35 35 40 43 40 40 36 33 30 26 28 28 26 24 41 51 61 59 72 72 77 81 99 98 97 98 98 98 99 100 98 95 93 100 100 96 94 73 67 58 63 55
38 28 35 38 36 36 39 33 36 37 37 34 30 35 29 23 24 37 47 64 67 75 74 75 98 99 98 98 97 99 99 100 100 99 100 98 92 96 87 75 66 63 59 68
41 41 34 36 37 36 34 31 35 35 37 37 26 34 33 32 28 23 24 48 58 51 53 67 74 88 98 89 98 99 99 100 100 99 98 97 99 90 82 78 68 65 69 71
34 33 33 27 29 34 32 32 35 41 40 48 33 37 34 28 27 24 24 29 45 51 47 51 68 76 87 73 80 95 98 98 98 95 96 95 94 86 75 70 66 70 82 68
31 30 30 30 34 36 34 40 47 57 60 42 38 43 32 29 26 24 23 23 28 39 44 53 56 63 67 63 55 74 81 91 89 87 93 88 86 83 76 66 70 78 72 68
36 34 32 31 31 37 40 39 43 43 50 38 44 45 31 28 27 30 31 30 30 34 37 43 42 46 51 56 48 60 67 80 88 88 92 97 84 85 85 78 69 64 54 50
38 33 26 29 31 29 44 47 33 51 72 64 46 42 31 27 28 26 25 28 32 34 34 40 39 40 47 52 48 37 52 64 76 83 87 91 96 88 79 72 74 65 65 58
43 44 33 28 26 27 33 35 50 46 51 52 47 48 31 28 25 28 32 30 30 36 43 42 37 37 44 50 49 42 33 38 46 62 73 76 79 80 72 65 64 64 59 57
43 44 45 36 35 33 33 39 45 39 47 43 47 42 38 30 28 35 36 32 29 37 34 52 42 37 43 50 52 47 40 32 30 38 48 60 68 72 67 60 59 55 54 53
72 66 49 38 32 29 28 32 34 51 59 56 47 38 29 33 32 37 30 26 21 27 30 41 47 45 44 46 52 52 48 43 34 29 34 41 41 48 52 51 44 49 49 50
61 79 65 44 30 26 34 34 31 33 50 49 61 42 31 34 32 30 30 23 23 21 33 40 51 49 48 46 48 52 53 50 48 42 38 36 37 36 33 39 40 42 42 46
56 80 94 72 58 48 39 37 38 38 53 43 47 38 33 31 31 29 28 23 22 22 25 37 37 32 43 49 50 49 51 54 54 52 49 45 44 38 39 49 55 55 52 51
67 60 63 78 67 66 58 37 33 42 42 46 39 38 33 33 30 28 28 27 24 22 21 24 27 26 25 36 46 49 48 53 58 59 58 56 53 55 46 48 56 61 64 70
62 92 94 87 64 64 64 44 33 38 36 40 43 41 32 29 29 30 27 32 27 23 21 19 21 28 26 25 27 36 40 41 54 58 57 60 61 58 58 59 64 70 76 81
67 95 100 75 75 88 70 49 38 34 36 36 44 36 32 33 35 33 32 29 31 27 22 20 18 18 19 21 23 25 28 42 46 49 57 65 69 71 71 70 69 72 79 89
68 80 100 90 98 97 49 44 37 38 34 39 39 36 32 32 33 31 29 30 29 24 21 22 18 18 19 19 23 26 32 38 46 53 59 65 72 78 80 85 91 96 97 98
65 69 100 97 97 92 62 56 52 47 42 37 38 34 33 33 35 30 27 28 24 25 22 21 20 19 17 16 20 26 32 40 46 50 58 66 76 84 93 100 100 100 100 100
65 62 96 99 93 87 71 53 44 43 58 46 45 47 43 36 46 40 41 40 42 31 29 21 19 21 20 20 24 33 38 43 51 60 74 87 97 99 99 100 100 100 99 98
89 92 94 88 88 74 56 51 50 59 56 50 50 47 47 50 43 46 44 46 43 35 36 29 22 20 22 30 39 47 46 51 61 85 100 98 99 100 100 100 100 100 100 100
83 90 93 88 90 84 57 56 63 58 58 56 52 51 57 54 54 46 46 52 51 43 53 68 45 47 48 61 56 58 64 82 96 100 100 100 100 100 100 99 98 100 100 100
58 73 78 75 72 58 53 55 49 56 65 45 49 53 47 50 56 56 46 53 63 65 86 97 64 77 95 96 97 96 99 100 100 100 100 99 98 99 99 100 100 100 100 100
47 56 70 65 52 66 52 49 62 66 66 60 61 56 51 52 56 47 53 59 85 99 100 98 96 100 100 99 100 100 99 99 100 99 98 95 97 99 100 100 99 100 100 100
50 54 61 70 59 63 45 54 76 62 61 52 52 58 54 54 62 59 50 93 96 99 99 100 100 98 100 100 100 100 100 100 100 99 100 100 100 100 99 100 100 100 100 100
70 69 74 66 87 92 82 71 94 77 73 61 62 60 59 55 53 59 82 95 98 100 100 100 100 99 100 100 100 100 100 100 99 98 97 98 97 100 100 100 99 100 100 100

GFSCGP_850_rhum_084.txt.gz
RH
22 28 28 21 23 20 18 22 21 16 16 19 17 15 11 10 16 22 29 35 45 51 62 74 96 99 92 98 98 93 99 100 98 100 100 99 94 82 76 66 51 50 66 36
26 31 18 19 22 28 26 24 22 16 16 21 18 15 11 10 14 17 20 30 38 51 64 75 97 99 94 96 97 98 98 100 97 100 100 99 99 77 76 68 69 69 48 38
32 21 18 24 31 32 28 27 23 21 18 19 21 21 16 9 14 20 25 26 32 42 57 75 91 98 98 99 97 98 99 98 100 100 100 100 99 90 85 76 72 70 72 48
34 27 24 26 31 25 30 20 22 24 25 26 20 23 13 15 16 16 20 30 31 39 48 70 83 97 98 99 96 98 98 99 99 99 100 100 97 86 96 84 72 82 75 66
31 33 31 34 28 24 26 20 19 23 27 27 25 26 15 12 16 15 13 20 29 36 46 60 76 89 96 100 99 98 99 100 100 99 96 98 99 82 89 94 73 73 70 72
29 27 29 29 22 23 24 27 28 29 29 38 29 23 18 14 18 16 14 14 22 32 43 54 70 88 92 99 99 99 99 97 98 100 97 98 95 88 97 89 72 66 62 72
14 21 21 25 24 22 27 28 36 43 43 38 20 23 20 16 16 16 14 15 20 30 40 52 67 80 87 95 84 99 99 98 99 99 100 99 93 95 81 80 65 62 69 71
21 17 15 16 22 22 30 29 32 40 36 32 23 30 21 16 14 15 17 19 22 30 39 49 59 70 85 92 80 78 93 100 99 99 99 98 98 98 91 90 78 75 77 77
25 22 15 16 15 14 24 33 23 33 30 46 28 24 22 18 18 17 17 16 19 24 36 45 55 69 83 91 73 43 67 93 100 97 99 100 99 99 99 91 78 80 82 82
31 35 20 19 21 18 18 18 36 34 45 43 27 28 25 21 19 16 18 20 22 21 31 42 50 64 75 86 75 45 53 86 95 97 98 99 99 100 100 97 92 82 86 91
41 36 32 30 29 28 28 32 29 27 30 36 34 24 19 20 18 18 19 21 23 26 33 42 47 56 68 80 87 54 56 86 88 93 98 99 99 99 98 96 96 94 92 94
54 56 43 31 24 23 23 26 29 39 30 34 35 30 21 22 21 22 20 23 24 32 38 44 50 54 62 72 80 72 67 75 82 91 94 96 97 96 93 88 78 75 74 75
43 74 57 38 29 23 28 27 26 27 30 39 51 33 17 16 17 19 21 21 22 27 36 44 52 54 58 66 71 76 71 55 73 82 83 82 80 73 57 58 60 72 67 65
39 41 67 67 62 54 54 42 29 29 44 39 34 27 22 21 20 17 20 20 20 23 32 42 49 54 56 60 66 70 76 77 78 77 71 53 38 49 60 78 98 95 94 92
44 47 35 36 38 38 41 46 42 37 29 37 31 27 21 18 18 18 19 22 23 21 24 34 46 52 55 58 63 68 71 77 72 84 77 46 39 37 38 42 56 70 77 90
46 75 63 68 45 40 48 41 39 36 33 25 25 27 19 20 19 20 20 21 23 22 25 26 34 46 55 58 60 64 54 48 53 62 63 71 56 46 47 48 63 87 93 92
62 63 79 62 45 52 53 46 46 32 30 29 34 25 21 22 20 20 20 21 24 25 29 30 29 33 47 39 24 43 44 42 44 51 63 64 66 67 60 61 80 89 99 100
60 57 76 67 68 76 46 62 56 39 28 24 23 22 20 19 19 22 27 29 30 33 30 21 22 31 35 47 29 39 44 40 41 48 62 61 60 72 80 81 81 91 83 75
49 55 70 72 63 51 70 62 77 62 37 23 23 22 21 23 26 26 33 42 46 41 41 27 27 33 31 40 41 33 47 39 46 45 62 64 64 73 81 75 72 74 79 85
42 52 60 61 78 57 48 48 61 47 62 38 36 37 35 32 39 31 49 52 53 42 42 33 28 28 26 32 36 40 48 67 63 58 72 72 62 62 72 80 87 91 94 99
65 68 77 65 90 52 46 47 50 97 95 60 54 41 40 41 46 49 59 61 51 52 46 49 52 41 52 40 41 55 57 81 81 68 57 62 71 79 90 98 99 100 100 100
86 70 73 68 88 70 45 41 64 82 66 56 64 51 52 48 44 45 61 63 52 48 60 84 97 76 67 90 95 90 71 71 79 88 89 96 99 99 99 99 99 100 100 100
45 78 94 62 50 43 45 52 59 59 61 60 60 58 56 49 43 48 72 73 62 57 80 98 100 98 99 100 99 98 95 97 98 100 100 100 99 100 100 100 100 98 99 100
33 39 50 45 45 44 51 59 75 72 71 68 66 54 54 53 50 60 81 84 64 74 79 97 100 99 98 100 99 100 100 100 100 100 100 100 100 100 100 100 100 100 100 100
32 39 37 37 33 46 33 59 74 76 75 73 70 61 61 58 60 74 89 93 98 87 73 98 99 100 98 100 100 100 100 100 100 100 99 100 100 100 100 100 99 100 100 100
37 51 51 50 81 81 60 72 83 80 80 77 76 73 84 82 88 94 100 100 100 100 99 88 98 100 100 100 100 100 100 99 100 100 100 100 100 100 100 100 99 100 100 99

GFSCGP_850_rhum_087.txt.gz
RH
15 10 18 16 15 14 17 17 16 15 12 15 16 15 13 10 8 9 14 16 20 27 33 44 59 72 76 85 99 100 99 99 99 100 100 99 98 80 76 71 70 76 77 84
14 16 13 15 15 17 21 20 20 16 14 15 16 17 13 11 10 9 9 13 18 26 34 46 61 80 86 90 100 100 94 99 98 99 100 84 77 76 77 76 77 82 66 74
22 17 14 17 20 28 22 24 24 21 16 14 17 19 16 13 12 11 8 12 14 21 34 46 61 82 97 94 99 100 99 100 98 98 100 100 94 87 90 85 77 77 66 59
19 16 19 20 21 22 29 21 20 20 21 24 16 24 17 13 10 9 9 14 15 17 29 43 58 74 90 92 99 98 95 99 99 100 100 98 88 82 84 84 58 63 57 55
21 22 23 27 22 18 26 19 21 21 20 21 20 21 18 15 14 11 12 14 16 18 25 38 55 66 77 84 98 98 92 98 99 98 99 100 87 73 66 68 60 68 60 52
24 19 22 19 21 24 23 22 22 22 22 34 24 24 22 16 13 13 12 11 12 16 24 33 49 60 71 83 94 98 97 95 98 100 99 99 99 84 82 75 75 70 63 66
23 18 20 21 27 25 26 28 37 41 39 38 20 21 20 13 12 12 12 12 13 15 22 32 46 58 66 80 89 98 98 99 99 98 99 95 99 97 85 76 77 63 66 71
19 18 10 16 20 24 27 29 38 43 38 32 19 25 18 12 11 11 12 13 15 18 22 29 40 55 64 77 89 99 100 100 98 98 99 98 99 100 92 100 86 67 69 73
21 18 11 8 11 16 20 31 23 29 27 38 30 21 16 14 14 14 13 13 14 15 20 28 35 53 61 72 84 92 100 100 99 100 99 98 97 99 94 84 89 79 69 72
29 34 17 13 14 12 15 9 25 25 39 42 26 21 18 17 17 15 14 15 15 14 17 26 34 48 57 69 79 89 95 99 99 99 98 97 98 96 94 86 76 82 78 72
34 34 27 20 21 21 19 18 19 23 27 32 32 20 15 16 15 15 17 17 18 18 16 23 32 42 55 66 73 83 87 88 95 98 99 97 94 93 94 94 86 89 72 73
42 48 41 28 18 17 17 20 20 30 32 23 26 25 14 16 15 16 16 20 21 24 21 23 32 39 54 63 67 78 81 79 82 92 98 98 95 94 95 95 90 83 78 79
34 52 51 36 26 22 25 24 22 23 25 32 43 28 14 13 18 17 16 18 19 22 29 30 34 38 49 58 65 71 79 74 75 79 88 92 95 98 96 91 87 90 89 86
36 33 39 50 56 37 34 25 25 26 36 32 30 24 18 19 17 16 16 17 18 18 24 29 35 38 44 52 60 67 74 74 70 73 80 86 90 92 92 94 94 92 92 91
33 44 32 27 24 25 32 32 31 32 31 36 28 24 18 16 14 18 16 16 18 18 18 22 32 37 41 46 55 62 67 73 72 73 76 80 86 89 91 94 96 98 93 93
46 52 43 42 30 30 31 28 26 26 27 28 26 26 15 15 16 17 14 15 18 18 18 22 24 33 41 44 51 58 63 71 74 74 76 78 84 87 90 91 91 92 92 94
52 56 63 59 30 42 48 29 27 32 34 32 31 23 18 17 18 19 19 19 18 19 22 24 26 24 30 42 48 52 59 64 72 75 76 78 81 86 85 89 90 91 96 94
61 54 62 65 49 59 27 36 44 52 50 43 33 20 17 16 17 18 17 19 25 27 29 29 26 30 28 31 43 53 55 60 68 72 73 75 77 79 81 82 82 83 87 92
46 52 85 72 54 36 28 29 40 48 54 47 40 17 15 15 16 18 19 30 35 39 42 45 48 45 34 29 32 46 54 57 63 68 70 71 73 75 76 76 78 80 85 94
38 45 61 56 58 56 52 37 48 48 70 67 61 41 29 30 41 41 42 48 48 50 55 60 63 52 44 39 30 38 54 55 58 65 65 68 72 76 77 77 79 81 90 100
54 61 73 62 56 49 47 40 49 74 95 75 79 60 72 39 39 44 44 47 53 64 66 62 72 75 75 57 39 38 49 55 58 64 68 69 74 80 86 86 90 90 93 100
61 71 77 61 54 65 39 43 71 76 79 75 91 77 75 77 38 38 50 56 67 72 77 54 60 64 82 88 68 71 62 64 68 62 76 89 94 96 97 99 100 100 100 100
66 58 62 42 43 64 43 61 60 64 63 58 62 58 60 56 41 40 52 67 83 96 98 93 79 92 91 94 88 88 91 96 93 89 97 99 100 100 100 100 100 100 100 100
31 49 93 77 65 68 49 65 59 58 65 62 60 55 53 50 43 42 63 77 96 98 99 100 100 97 99 100 98 99 99 99 100 100 100 100 100 100 100 100 99 99 100 100
35 42 33 32 60 52 71 61 68 65 65 67 66 66 68 66 67 68 79 95 100 99 98 100 100 98 99 98 100 100 100 100 100 100 100 99 100 100 100 100 100 100 99 100
53 65 54 78 67 65 55 65 74 69 68 72 71 68 70 75 77 86 99 100 100 100 100 100 100 100 100 100 100 100 100 100 100 100 100 100 100 100 100 100 98 98 100 100